K5BWX-2 Weather Reports


Display with metric or nautical units.
time (UTC)temp
F
wind
direction
speed
MPH
gust
MPH
rain 1hr
in
rain 24hr
in
rain mn
in
humidity
%
barometer
mb
20260902221145 88 47 3.0 5.0 0.00 0.00 0.00 57 1021.8
20260902221058 88 65 3.0 6.0 0.00 0.00 0.00 57 1021.7
20260902220946 88 62 3.0 6.0 0.00 0.00 0.00 56 1021.7
20260902220843 88 63 3.0 6.0 0.00 0.00 0.00 56 1021.5
20260902220745 88 40 3.0 6.0 0.00 0.00 0.00 56 1021.8
20260902220640 88 56 3.0 6.0 0.00 0.00 0.00 56 1021.7
20260902220537 89 57 3.0 6.0 0.00 0.00 0.00 56 1021.7
20260902220437 89 60 3.0 7.0 0.00 0.00 0.00 56 1021.8
20260902220334 89 60 4.0 7.0 0.00 0.00 0.00 56 1021.7
20260902220238 89 98 3.0 7.0 0.00 0.00 0.00 55 1021.8
20260902220133 89 77 3.0 7.0 0.00 0.00 0.00 55 1021.8
20260902220033 89 74 3.0 7.0 0.00 0.00 0.00 54 1021.8
20260902215932 89 63 3.0 7.0 0.00 0.00 0.00 54 1021.8
20260902215834 89 44 3.0 7.0 0.00 0.00 0.00 55 1021.8
20260902215810 90 80 2.0 7.0 0.00 0.00 0.00 55 1021.8
20260902215757 89 55 3.0 7.0 0.00 0.00 0.00 56 1021.8
20260902215533 90 79 2.0 7.0 0.00 0.00 0.00 54 1021.8
20260902215434 90 69 2.0 6.0 0.00 0.00 0.00 55 1021.8
20260902215332 90 49 2.0 6.0 0.00 0.00 0.00 55 1021.8
20260902215233 90 67 1.0 6.0 0.00 0.00 0.00 54 1021.8
20260902215210 91 52 1.0 4.0 0.00 0.00 0.00 54 1021.8
20260902215158 90 71 1.0 4.0 0.00 0.00 0.00 54 1021.7
20260902215001 91 51 1.0 5.0 0.00 0.00 0.00 53 1021.8
20260902214946 91 52 1.0 4.0 0.00 0.00 0.00 54 1021.8
20260902214921 91 52 1.0 4.0 0.00 0.00 0.00 55 1021.8
20260902214750 91 52 1.0 4.0 0.00 0.00 0.00 55 1021.8
20260902214528 91 52 1.0 5.0 0.00 0.00 0.00 53 1021.8
20260902214429 91 48 1.0 5.0 0.00 0.00 0.00 55 1021.8
20260902214330 91 45 2.0 6.0 0.00 0.00 0.00 54 1021.8
20260902214232 91 45 2.0 6.0 0.00 0.00 0.00 54 1021.8
20260902214208 91 45 3.0 8.0 0.00 0.00 0.00 54 1021.8
20260902214156 91 45 2.0 8.0 0.00 0.00 0.00 54 1021.8
20260902213928 91 44 3.0 8.0 0.00 0.00 0.00 54 1021.8
20260902213825 90 44 3.0 8.0 0.00 0.00 0.00 54 1021.8
20260902213726 91 44 3.0 8.0 0.00 0.00 0.00 55 1021.7
20260902213627 90 53 3.0 8.0 0.00 0.00 0.00 55 1021.7
20260902213529 90 100 3.0 8.0 0.00 0.00 0.00 55 1021.7
20260902213427 90 97 3.0 8.0 0.00 0.00 0.00 54 1021.8
20260902213325 90 100 3.0 9.0 0.00 0.00 0.00 54 1021.7
20260902213310 90 73 2.0 9.0 0.00 0.00 0.00 54 1021.8
20260902213254 90 70 3.0 9.0 0.00 0.00 0.00 55 1021.7
20260902213218 90 53 2.0 9.0 0.00 0.00 0.00 55 1021.8
20260902213053 90 85 2.0 9.0 0.00 0.00 0.00 54 1021.8
20260902212836 90 57 2.0 9.0 0.00 0.00 0.00 54 1021.7
20260902212824 90 91 2.0 9.0 0.00 0.00 0.00 54 1021.8
20260902212756 90 55 2.0 9.0 0.00 0.00 0.00 54 1021.8
20260902212730 90 45 2.0 9.0 0.00 0.00 0.00 54 1021.7
20260902212559 90 34 2.0 9.0 0.00 0.00 0.00 54 1021.7
20260902212327 90 94 2.0 5.0 0.00 0.00 0.00 54 1021.7
20260902212225 90 94 2.0 5.0 0.00 0.00 0.00 54 1021.7
20260902212131 90 94 2.0 5.0 0.00 0.00 0.00 54 1021.8
20260902212027 91 355 2.0 5.0 0.00 0.00 0.00 53 1021.8
20260902211925 91 355 2.0 6.0 0.00 0.00 0.00 53 1021.8
20260902211824 91 355 2.0 6.0 0.00 0.00 0.00 53 1021.8
20260902211727 91 355 2.0 6.0 0.00 0.00 0.00 52 1021.9
20260902211701 91 347 2.0 6.0 0.00 0.00 0.00 55 1021.9
20260902211644 91 355 2.0 6.0 0.00 0.00 0.00 53 1021.9
20260902211418 91 17 2.0 6.0 0.00 0.00 0.00 55 1021.9
20260902211328 91 30 2.0 6.0 0.00 0.00 0.00 55 1021.9
20260902211216 91 30 2.0 6.0 0.00 0.00 0.00 53 1021.9
20260902211112 91 316 2.0 6.0 0.00 0.00 0.00 53 1021.9
20260902211014 91 321 2.0 6.0 0.00 0.00 0.00 53 1021.9
20260902210912 91 11 2.0 4.0 0.00 0.00 0.00 53 1022.0
20260902210836 91 35 2.0 4.0 0.00 0.00 0.00 53 1022.0
20260902210830 90 35 2.0 4.0 0.00 0.00 0.00 54 1021.9
20260902210820 91 11 2.0 4.0 0.00 0.00 0.00 53 1021.9
20260902210756 91 11 2.0 4.0 0.00 0.00 0.00 54 1022.0
20260902210414 90 35 2.0 4.0 0.00 0.00 0.00 54 1022.0
20260902210315 90 355 2.0 4.0 0.00 0.00 0.00 53 1022.0
20260902210212 90 355 2.0 4.0 0.00 0.00 0.00 53 1022.0
20260902210114 90 47 2.0 4.0 0.00 0.00 0.00 54 1022.1
20260902210015 90 54 2.0 4.0 0.00 0.00 0.00 55 1022.1
20260902205912 90 42 2.0 4.0 0.00 0.00 0.00 55 1022.1
20260902205812 90 34 2.0 4.0 0.00 0.00 0.00 55 1022.1
20260902205805 90 75 2.0 4.0 0.00 0.00 0.00 56 1022.1
20260902205801 90 77 2.0 4.0 0.00 0.00 0.00 56 1022.1
20260902205755 89 311 2.0 4.0 0.00 0.00 0.00 58 1022.0
20260902205749 89 311 2.0 4.0 0.00 0.00 0.00 58 1022.1
20260902205737 90 34 2.0 4.0 0.00 0.00 0.00 55 1022.1
20260902205716 90 38 2.0 4.0 0.00 0.00 0.00 55 1022.1
20260902205400 89 65 2.0 4.0 0.00 0.00 0.00 57 1022.1
20260902205009 89 79 2.0 6.0 0.00 0.00 0.00 58 1022.1
20260902204911 89 60 2.0 6.0 0.00 0.00 0.00 56 1022.0
20260902204808 89 327 2.0 6.0 0.00 0.00 0.00 56 1022.0
20260902204710 89 327 2.0 6.0 0.00 0.00 0.00 56 1022.0
20260902204612 88 327 2.0 6.0 0.00 0.00 0.00 57 1022.1
20260902204510 88 327 2.0 6.0 0.00 0.00 0.00 58 1022.1
20260902204410 88 306 2.0 6.0 0.00 0.00 0.00 59 1022.1
20260902204309 88 75 2.0 6.0 0.00 0.00 0.00 59 1022.1
20260902204207 87 74 2.0 6.0 0.00 0.00 0.00 59 1022.1
20260902204104 87 63 2.0 6.0 0.00 0.00 0.00 59 1022.1
20260902204035 87 37 2.0 3.0 0.00 0.00 0.00 61 1022.1
20260902204025 87 64 1.0 4.0 0.00 0.00 0.00 60 1022.1
20260902203759 87 37 2.0 4.0 0.00 0.00 0.00 61 1022.1
20260902203700 86 37 2.0 4.0 0.00 0.00 0.00 61 1022.2
20260902203559 86 30 2.0 4.0 0.00 0.00 0.00 61 1022.2
20260902203500 86 30 2.0 4.0 0.00 0.00 0.00 60 1022.2
20260902203401 86 30 2.0 4.0 0.00 0.00 0.00 62 1022.1
20260902203257 86 30 2.0 5.0 0.00 0.00 0.00 61 1022.2
20260902203232 85 33 2.0 5.0 0.00 0.00 0.00 62 1022.3
20260902203221 85 33 2.0 5.0 0.00 0.00 0.00 61 1022.2
20260902202957 85 65 2.0 5.0 0.00 0.00 0.00 63 1022.3
20260902202853 85 65 2.0 5.0 0.00 0.00 0.00 63 1022.2
20260902202758 85 65 2.0 5.0 0.00 0.00 0.00 62 1022.3
20260902202652 85 63 2.0 5.0 0.00 0.00 0.00 62 1022.3
20260902202626 85 63 2.0 5.0 0.00 0.00 0.00 62 1022.3
20260902202613 85 63 2.0 5.0 0.00 0.00 0.00 62 1022.2
20260902202347 85 62 2.0 5.0 0.00 0.00 0.00 63 1022.4
20260902202247 85 52 2.0 5.0 0.00 0.00 0.00 62 1022.3
20260902202148 85 75 2.0 5.0 0.00 0.00 0.00 63 1022.3
20260902202047 85 75 2.0 5.0 0.00 0.00 0.00 62 1022.4
20260902201946 85 74 2.0 5.0 0.00 0.00 0.00 62 1022.4
20260902201847 85 60 2.0 5.0 0.00 0.00 0.00 64 1022.3
20260902201746 85 55 2.0 5.0 0.00 0.00 0.00 64 1022.4
20260902201644 85 64 2.0 5.0 0.00 0.00 0.00 64 1022.4
20260902201542 85 64 2.0 5.0 0.00 0.00 0.00 64 1022.4
20260902201440 85 65 2.0 3.0 0.00 0.00 0.00 65 1022.4
20260902201340 85 11 1.0 3.0 0.00 0.00 0.00 66 1022.4
20260902201312 85 5 1.0 3.0 0.00 0.00 0.00 65 1022.5
20260902201303 85 5 1.0 3.0 0.00 0.00 0.00 65 1022.4
20260902201046 85 5 1.0 3.0 0.00 0.00 0.00 63 1022.5
20260902200942 85 5 1.0 3.0 0.00 0.00 0.00 64 1022.5
20260902200854 86 38 1.0 4.0 0.00 0.00 0.00 63 1022.5
20260902200842 85 0 1.0 3.0 0.00 0.00 0.00 63 1022.4
20260902200818 85 0 1.0 3.0 0.00 0.00 0.00 63 1022.5
20260902200650 85 0 1.0 3.0 0.00 0.00 0.00 63 1022.4
20260902200627 86 36 1.0 3.0 0.00 0.00 0.00 63 1022.4
20260902200504 86 38 1.0 3.0 0.00 0.00 0.00 63 1022.5
20260902200238 86 45 1.0 5.0 0.00 0.00 0.00 62 1022.5
20260902200138 86 45 1.0 5.0 0.00 0.00 0.00 63 1022.5
20260902200038 86 45 1.0 5.0 0.00 0.00 0.00 63 1022.6
20260902195939 86 59 2.0 5.0 0.00 0.00 0.00 63 1022.5
20260902195835 86 34 2.0 7.0 0.00 0.00 0.00 63 1022.5
20260902195732 86 34 2.0 7.0 0.00 0.00 0.00 63 1022.5
20260902195633 86 35 2.0 7.0 0.00 0.00 0.00 62 1022.6
20260902195600 87 46 2.0 7.0 0.00 0.00 0.00 61 1022.6
20260902195555 87 38 2.0 7.0 0.00 0.00 0.00 60 1022.7
20260902195540 87 35 2.0 7.0 0.00 0.00 0.00 63 1022.6
20260902195512 87 57 2.0 7.0 0.00 0.00 0.00 61 1022.6
20260902195205 87 53 3.0 7.0 0.00 0.00 0.00 59 1022.6
20260902195155 87 53 3.0 7.0 0.00 0.00 0.00 60 1022.6
20260902194959 87 53 3.0 5.0 0.00 0.00 0.00 61 1022.7
20260902194950 87 61 3.0 7.0 0.00 0.00 0.00 61 1022.6
20260902194732 87 61 3.0 5.0 0.00 0.00 0.00 63 1022.7
20260902194705 87 30 3.0 5.0 0.00 0.00 0.00 62 1022.7
20260902194653 87 15 3.0 5.0 0.00 0.00 0.00 62 1022.6
20260902194429 87 53 3.0 5.0 0.00 0.00 0.00 61 1022.7
20260902194328 87 61 3.0 5.0 0.00 0.00 0.00 62 1022.7
20260902194230 87 51 3.0 5.0 0.00 0.00 0.00 61 1022.8
20260902194210 88 68 3.0 5.0 0.00 0.00 0.00 62 1022.8
20260902194156 87 50 3.0 5.0 0.00 0.00 0.00 59 1022.8
20260902193924 88 65 3.0 5.0 0.00 0.00 0.00 61 1022.8
20260902193825 88 87 3.0 5.0 0.00 0.00 0.00 60 1022.9
20260902193722 88 55 3.0 5.0 0.00 0.00 0.00 60 1022.8
20260902193616 89 63 3.0 5.0 0.00 0.00 0.00 60 1022.9
20260902193553 89 46 2.0 7.0 0.00 0.00 0.00 57 1022.8
20260902193542 89 67 3.0 7.0 0.00 0.00 0.00 57 1022.9
20260902193317 89 55 2.0 7.0 0.00 0.00 0.00 57 1022.9
20260902193214 89 71 2.0 7.0 0.00 0.00 0.00 57 1023.0
20260902193109 90 62 2.0 7.0 0.00 0.00 0.00 56 1022.9
20260902193008 90 46 3.0 7.0 0.00 0.00 0.00 56 1022.9
20260902192943 91 46 2.0 7.0 0.00 0.00 0.00 54 1022.9
20260902192931 90 46 3.0 7.0 0.00 0.00 0.00 54 1022.9
20260902192707 91 88 2.0 7.0 0.00 0.00 0.00 55 1022.9
20260902192612 91 89 2.0 7.0 0.00 0.00 0.00 54 1022.9
20260902192511 91 51 2.0 6.0 0.00 0.00 0.00 54 1022.9
20260902192411 92 59 2.0 6.0 0.00 0.00 0.00 54 1022.9
20260902192307 92 59 2.0 6.0 0.00 0.00 0.00 53 1022.9
20260902192206 92 74 2.0 6.0 0.00 0.00 0.00 53 1022.9
20260902192142 92 75 2.0 6.0 0.00 0.00 0.00 54 1022.9
20260902192129 92 73 2.0 6.0 0.00 0.00 0.00 53 1022.9
20260902192000 92 67 2.0 6.0 0.00 0.00 0.00 55 1022.9
20260902191954 92 103 2.0 6.0 0.00 0.00 0.00 54 1022.9
20260902191938 92 80 2.0 6.0 0.00 0.00 0.00 53 1022.9
20260902191748 92 38 2.0 6.0 0.00 0.00 0.00 55 1022.9
20260902191622 92 298 2.0 6.0 0.00 0.00 0.00 55 1023.0
20260902191358 92 46 2.0 6.0 0.00 0.00 0.00 55 1023.0
20260902191259 91 76 2.0 6.0 0.00 0.00 0.00 55 1022.9
20260902191200 91 80 2.0 6.0 0.00 0.00 0.00 56 1022.9
20260902191132 91 184 2.0 6.0 0.00 0.00 0.00 54 1022.9
20260902191120 91 80 1.0 6.0 0.00 0.00 0.00 54 1022.9
20260902190855 91 167 2.0 6.0 0.00 0.00 0.00 55 1022.9
20260902190759 91 191 1.0 6.0 0.00 0.00 0.00 58 1022.9
20260902190653 90 324 1.0 5.0 0.00 0.00 0.00 57 1023.0
20260902190553 90 324 1.0 5.0 0.00 0.00 0.00 56 1023.0
20260902190507 89 233 2.0 5.0 0.00 0.00 0.00 57 1022.9
20260902190455 90 275 1.0 5.0 0.00 0.00 0.00 56 1023.0
20260902190448 89 14 2.0 5.0 0.00 0.00 0.00 56 1023.0
20260902190429 90 280 2.0 5.0 0.00 0.00 0.00 56 1022.9
20260902190050 89 14 2.0 5.0 0.00 0.00 0.00 57 1023.0
20260902185948 89 16 2.0 5.0 0.00 0.00 0.00 56 1023.0
20260902185832 89 311 2.0 5.0 0.00 0.00 0.00 57 1023.0
20260902185734 89 285 2.0 6.0 0.00 0.00 0.00 57 1023.0
20260902185632 89 285 2.0 6.0 0.00 0.00 0.00 56 1023.0
20260902185534 89 285 2.0 6.0 0.00 0.00 0.00 56 1023.0
20260902185510 88 355 2.0 6.0 0.00 0.00 0.00 58 1022.9
20260902185456 88 285 2.0 6.0 0.00 0.00 0.00 59 1023.0
20260902185231 88 355 2.0 6.0 0.00 0.00 0.00 58 1023.0
20260902185133 88 355 2.0 6.0 0.00 0.00 0.00 58 1023.0
20260902185028 88 355 2.0 6.0 0.00 0.00 0.00 57 1023.1
20260902184927 88 330 1.0 6.0 0.00 0.00 0.00 57 1023.1
20260902184820 87 300 1.0 5.0 0.00 0.00 0.00 59 1023.1
20260902184721 87 201 1.0 5.0 0.00 0.00 0.00 61 1023.1
20260902184622 87 238 1.0 4.0 0.00 0.00 0.00 60 1023.1
20260902184521 87 238 1.0 4.0 0.00 0.00 0.00 59 1023.1
20260902184422 87 255 1.0 4.0 0.00 0.00 0.00 60 1023.1
20260902184316 87 257 2.0 4.0 0.00 0.00 0.00 59 1023.1
20260902184215 87 257 2.0 4.0 0.00 0.00 0.00 58 1023.2
20260902184114 87 257 2.0 4.0 0.00 0.00 0.00 59 1023.2
20260902184100 88 262 1.0 4.0 0.00 0.00 0.00 59 1023.2
20260902184033 88 262 2.0 4.0 0.00 0.00 0.00 61 1023.2
20260902184014 87 257 2.0 4.0 0.00 0.00 0.00 59 1023.1
20260902183950 88 259 2.0 4.0 0.00 0.00 0.00 59 1023.2
20260902183607 88 236 1.0 4.0 0.00 0.00 0.00 61 1023.2
20260902183504 88 201 1.0 4.0 0.00 0.00 0.00 59 1023.2
20260902183404 88 201 1.0 4.0 0.00 0.00 0.00 59 1023.2
20260902183303 88 200 1.0 6.0 0.00 0.00 0.00 59 1023.4
20260902183202 88 211 1.0 6.0 0.00 0.00 0.00 61 1023.2
20260902183102 88 211 1.0 6.0 0.00 0.00 0.00 60 1023.2
20260902183003 88 268 1.0 6.0 0.00 0.00 0.00 58 1023.2
20260902182859 88 268 1.0 6.0 0.00 0.00 0.00 57 1023.4
20260902182747 88 268 1.0 6.0 0.00 0.00 0.00 57 1023.2
20260902182648 88 268 1.0 6.0 0.00 0.00 0.00 56 1023.2
20260902182547 89 268 1.0 6.0 0.00 0.00 0.00 56 1023.2
20260902182446 89 268 1.0 6.0 0.00 0.00 0.00 55 1023.4
20260902182413 89 325 1.0 6.0 0.00 0.00 0.00 56 1023.4
20260902182404 89 270 1.0 6.0 0.00 0.00 0.00 56 1023.2
20260902182142 89 298 1.0 6.0 0.00 0.00 0.00 56 1023.4
20260902182044 89 74 2.0 6.0 0.00 0.00 0.00 57 1023.4
20260902181942 89 74 2.0 6.0 0.00 0.00 0.00 57 1023.4
20260902181839 89 74 2.0 6.0 0.00 0.00 0.00 57 1023.4
20260902181806 89 74 3.0 6.0 0.00 0.00 0.00 56 1023.4
20260902181756 89 74 3.0 6.0 0.00 0.00 0.00 57 1023.4
20260902181533 89 74 3.0 6.0 0.00 0.00 0.00 56 1023.2
20260902181433 89 64 3.0 6.0 0.00 0.00 0.00 56 1023.2
20260902181333 89 97 2.0 6.0 0.00 0.00 0.00 56 1023.2
20260902181227 89 121 2.0 6.0 0.00 0.00 0.00 56 1023.2
20260902181126 89 115 2.0 6.0 0.00 0.00 0.00 57 1023.2
20260902181024 89 51 2.0 6.0 0.00 0.00 0.00 56 1023.2
20260902180923 89 88 2.0 6.0 0.00 0.00 0.00 56 1023.2
20260902180823 89 119 2.0 4.0 0.00 0.00 0.00 55 1023.2
20260902180752 89 59 2.0 3.0 0.00 0.00 0.00 55 1023.4
20260902180742 89 121 2.0 3.0 0.00 0.00 0.00 54 1023.2
20260902180550 89 12 2.0 4.0 0.00 0.00 0.00 56 1023.4
20260902180540 89 57 2.0 3.0 0.00 0.00 0.00 57 1023.4
20260902180349 89 42 2.0 4.0 0.00 0.00 0.00 59 1023.4
20260902180340 89 15 2.0 4.0 0.00 0.00 0.00 55 1023.4
20260902180111 88 42 2.0 4.0 0.00 0.00 0.00 57 1023.4
20260902180012 88 25 2.0 4.0 0.00 0.00 0.00 58 1023.4
20260902175910 88 22 2.0 4.0 0.00 0.00 0.00 59 1023.7
20260902175812 87 17 2.0 4.0 0.00 0.00 0.00 58 1023.4
20260902175704 87 91 2.0 4.0 0.00 0.00 0.00 59 1023.4
20260902175602 87 306 2.0 4.0 0.00 0.00 0.00 59 1023.4
20260902175459 87 306 2.0 6.0 0.00 0.00 0.00 59 1023.2
20260902175401 87 308 2.0 6.0 0.00 0.00 0.00 60 1023.4
20260902175300 87 307 2.0 6.0 0.00 0.00 0.00 61 1023.2
20260902175155 87 306 2.0 6.0 0.00 0.00 0.00 59 1023.4
20260902175050 87 209 2.0 6.0 0.00 0.00 0.00 60 1023.4
20260902174956 88 5 2.0 6.0 0.00 0.00 0.00 59 1023.4
20260902174851 88 5 2.0 6.0 0.00 0.00 0.00 57 1023.4
20260902174752 88 5 2.0 6.0 0.00 0.00 0.00 57 1023.4
20260902174722 88 282 2.0 6.0 0.00 0.00 0.00 57 1023.2
20260902174709 88 5 2.0 6.0 0.00 0.00 0.00 57 1023.4
20260902174449 88 230 1.0 6.0 0.00 0.00 0.00 56 1023.2
20260902174354 89 327 1.0 4.0 0.00 0.00 0.00 56 1023.4
20260902174249 89 327 1.0 4.0 0.00 0.00 0.00 56 1023.4
20260902174138 89 217 1.0 4.0 0.00 0.00 0.00 57 1023.4
20260902174045 89 217 1.0 4.0 0.00 0.00 0.00 57 1023.4
20260902173936 89 196 1.0 4.0 0.00 0.00 0.00 56 1023.2
20260902173838 89 196 1.0 4.0 0.00 0.00 0.00 56 1023.4
20260902173736 89 196 1.0 4.0 0.00 0.00 0.00 56 1023.4
20260902173631 88 296 1.0 4.0 0.00 0.00 0.00 57 1023.4
20260902173528 88 217 1.0 4.0 0.00 0.00 0.00 59 1023.4
20260902173506 87 87 1.0 4.0 0.00 0.00 0.00 59 1023.5
20260902173454 88 88 1.0 4.0 0.00 0.00 0.00 60 1023.5
20260902173255 87 78 1.0 3.0 0.00 0.00 0.00 59 1023.6
20260902173247 87 96 1.0 4.0 0.00 0.00 0.00 59 1023.6
20260902173103 87 328 1.0 6.0 0.00 0.00 0.00 58 1023.7
20260902173050 87 328 1.0 6.0 0.00 0.00 0.00 60 1023.7
20260902172825 88 328 1.0 6.0 0.00 0.00 0.00 59 1023.7
20260902172724 88 227 1.0 6.0 0.00 0.00 0.00 62 1023.7
20260902172608 88 227 1.0 6.0 0.00 0.00 0.00 59 1023.7
20260902172510 88 227 1.0 6.0 0.00 0.00 0.00 59 1023.7
20260902172411 88 199 1.0 6.0 0.00 0.00 0.00 59 1023.7
20260902172308 88 199 1.0 6.0 0.00 0.00 0.00 59 1023.7
20260902172208 88 199 2.0 6.0 0.00 0.00 0.00 59 1023.8
20260902172133 88 244 1.0 3.0 0.00 0.00 0.00 59 1023.8
20260902172123 88 199 1.0 6.0 0.00 0.00 0.00 59 1023.8
20260902171932 87 107 1.0 6.0 0.00 0.00 0.00 58 1023.9
20260902171926 87 92 1.0 6.0 0.00 0.00 0.00 58 1023.9
20260902171911 87 112 1.0 3.0 0.00 0.00 0.00 60 1023.8
20260902171847 87 109 1.0 3.0 0.00 0.00 0.00 60 1023.8
20260902171501 87 92 1.0 6.0 0.00 0.00 0.00 57 1023.9
20260902171405 87 92 1.0 6.0 0.00 0.00 0.00 58 1023.9
20260902171335 87 92 1.0 6.0 0.00 0.00 0.00 58 1023.8
20260902171324 87 92 1.0 6.0 0.00 0.00 0.00 58 1023.9
20260902171048 87 92 1.0 6.0 0.00 0.00 0.00 58 1023.9
20260902170949 87 92 1.0 6.0 0.00 0.00 0.00 58 1024.0
20260902170849 88 92 1.0 6.0 0.00 0.00 0.00 59 1024.0
20260902170751 88 87 1.0 6.0 0.00 0.00 0.00 58 1024.0
20260902170647 88 80 1.0 3.0 0.00 0.00 0.00 57 1024.0
20260902170543 88 80 1.0 3.0 0.00 0.00 0.00 56 1024.0
20260902170442 88 80 1.0 3.0 0.00 0.00 0.00 57 1024.1
20260902170342 88 80 1.0 3.0 0.00 0.00 0.00 58 1024.0
20260902170243 89 80 1.0 3.0 0.00 0.00 0.00 58 1024.1
20260902170140 89 80 1.0 4.0 0.00 0.00 0.00 58 1024.1
20260902170041 89 15 1.0 4.0 0.00 0.00 0.00 59 1024.1
20260902165937 88 15 2.0 4.0 0.00 0.00 0.00 57 1024.1
20260902165907 88 15 1.0 4.0 0.00 0.00 0.00 59 1024.0
20260902165857 88 15 1.0 4.0 0.00 0.00 0.00 59 1024.1
20260902165635 88 5 2.0 4.0 0.00 0.00 0.00 58 1024.1
20260902165521 88 5 2.0 5.0 0.00 0.00 0.00 57 1024.1
20260902165423 88 5 2.0 5.0 0.00 0.00 0.00 57 1024.2
20260902165408 87 38 1.0 5.0 0.00 0.00 0.00 59 1024.2
20260902165323 87 5 1.0 5.0 0.00 0.00 0.00 58 1024.1
20260902165316 87 246 1.0 5.0 0.00 0.00 0.00 58 1024.1
20260902165258 87 5 1.0 5.0 0.00 0.00 0.00 58 1024.1
20260902164952 87 202 2.0 7.0 0.00 0.00 0.00 61 1024.2
20260902164939 87 202 2.0 5.0 0.00 0.00 0.00 61 1024.2
20260902164715 87 301 2.0 7.0 0.00 0.00 0.00 60 1024.2
20260902164617 87 301 2.0 7.0 0.00 0.00 0.00 61 1024.2
20260902164517 86 349 2.0 7.0 0.00 0.00 0.00 61 1024.2
20260902164412 86 348 2.0 7.0 0.00 0.00 0.00 61 1024.3
20260902164307 86 348 2.0 7.0 0.00 0.00 0.00 60 1024.3
20260902164208 86 348 2.0 7.0 0.00 0.00 0.00 60 1024.2
20260902164109 86 348 2.0 7.0 0.00 0.00 0.00 60 1024.3
20260902164001 86 322 2.0 7.0 0.00 0.00 0.00 60 1024.3
20260902163859 86 337 2.0 7.0 0.00 0.00 0.00 60 1024.3
20260902163800 86 346 2.0 6.0 0.00 0.00 0.00 61 1024.3
20260902163657 85 287 2.0 6.0 0.00 0.00 0.00 61 1024.3
20260902163637 85 171 2.0 4.0 0.00 0.00 0.00 60 1024.3
20260902163625 85 173 2.0 4.0 0.00 0.00 0.00 61 1024.3
20260902163431 86 107 2.0 4.0 0.00 0.00 0.00 60 1024.3
20260902163422 85 181 2.0 4.0 0.00 0.00 0.00 60 1024.4
20260902163158 86 101 2.0 4.0 0.00 0.00 0.00 61 1024.4
20260902163126 85 206 3.0 6.0 0.00 0.00 0.00 60 1024.4
20260902163120 85 206 2.0 6.0 0.00 0.00 0.00 60 1024.4
20260902163114 85 206 3.0 6.0 0.00 0.00 0.00 60 1024.4
20260902163102 85 123 2.0 4.0 0.00 0.00 0.00 62 1024.4
20260902163039 85 252 2.0 4.0 0.00 0.00 0.00 60 1024.4
20260902162911 85 226 2.0 4.0 0.00 0.00 0.00 60 1024.4
20260902162855 85 225 2.0 6.0 0.00 0.00 0.00 60 1024.4
20260902162421 85 226 3.0 7.0 0.00 0.00 0.00 61 1024.4
20260902162412 85 228 3.0 7.0 0.00 0.00 0.00 60 1024.5
20260902162148 85 309 3.0 7.0 0.00 0.00 0.00 60 1024.4
20260902162047 85 316 3.0 7.0 0.00 0.00 0.00 59 1024.5
20260902161947 85 313 3.0 7.0 0.00 0.00 0.00 59 1024.5
20260902161847 85 275 3.0 7.0 0.00 0.00 0.00 62 1024.4
20260902161744 85 302 3.0 7.0 0.00 0.00 0.00 62 1024.5
20260902161644 84 317 3.0 7.0 0.00 0.00 0.00 65 1024.5
20260902161540 84 317 3.0 7.0 0.00 0.00 0.00 63 1024.4
20260902161441 84 302 3.0 7.0 0.00 0.00 0.00 63 1024.5
20260902161408 84 323 2.0 5.0 0.00 0.00 0.00 63 1024.5
20260902161359 84 0 2.0 5.0 0.00 0.00 0.00 62 1024.4
20260902161136 84 323 2.0 5.0 0.00 0.00 0.00 62 1024.5
20260902161031 84 323 2.0 5.0 0.00 0.00 0.00 63 1024.6
20260902160935 84 325 2.0 7.0 0.00 0.00 0.00 63 1024.6
20260902160831 84 300 2.0 7.0 0.00 0.00 0.00 62 1024.6
20260902160728 84 348 2.0 7.0 0.00 0.00 0.00 63 1024.6
20260902160623 84 355 2.0 7.0 0.00 0.00 0.00 62 1024.7
20260902160526 84 309 2.0 7.0 0.00 0.00 0.00 62 1024.6
20260902160424 84 209 2.0 7.0 0.00 0.00 0.00 62 1024.6
20260902160325 84 205 2.0 7.0 0.00 0.00 0.00 62 1024.7
20260902160220 84 208 2.0 7.0 0.00 0.00 0.00 61 1024.7
20260902160122 84 236 2.0 7.0 0.00 0.00 0.00 61 1024.7
20260902160021 84 297 2.0 7.0 0.00 0.00 0.00 62 1024.7
20260902155920 84 234 2.0 7.0 0.00 0.00 0.00 62 1024.6
20260902155820 84 280 2.0 7.0 0.00 0.00 0.00 62 1024.6
20260902155726 84 281 1.0 7.0 0.00 0.00 0.00 62 1024.7
20260902155620 85 206 1.0 5.0 0.00 0.00 0.00 62 1024.6
20260902155520 85 255 1.0 5.0 0.00 0.00 0.00 62 1024.7
20260902155423 85 255 1.0 5.0 0.00 0.00 0.00 62 1024.7
20260902155323 85 255 1.0 5.0 0.00 0.00 0.00 63 1024.7
20260902155308 85 263 2.0 5.0 0.00 0.00 0.00 65 1024.7
20260902155250 85 254 1.0 5.0 0.00 0.00 0.00 62 1024.7
20260902155015 85 169 2.0 5.0 0.00 0.00 0.00 65 1024.6
20260902154915 85 169 2.0 5.0 0.00 0.00 0.00 64 1024.6
20260902154817 85 65 1.0 5.0 0.00 0.00 0.00 64 1024.7
20260902154758 85 63 1.0 5.0 0.00 0.00 0.00 64 1024.6
20260902154744 85 63 2.0 5.0 0.00 0.00 0.00 64 1024.6
20260902154515 85 188 1.0 5.0 0.00 0.00 0.00 65 1024.7
20260902154422 85 190 1.0 5.0 0.00 0.00 0.00 65 1024.6
20260902154315 85 232 1.0 5.0 0.00 0.00 0.00 65 1024.6
20260902154212 85 232 2.0 5.0 0.00 0.00 0.00 65 1024.6
20260902154120 85 332 2.0 8.0 0.00 0.00 0.00 65 1024.7
20260902154013 85 17 2.0 8.0 0.00 0.00 0.00 66 1024.7
20260902153907 85 311 2.0 8.0 0.00 0.00 0.00 65 1024.6
20260902153807 85 167 2.0 8.0 0.00 0.00 0.00 65 1024.7
20260902153704 85 168 2.0 8.0 0.00 0.00 0.00 66 1024.7
20260902153607 85 62 3.0 8.0 0.00 0.00 0.00 66 1024.7
20260902153504 84 62 3.0 8.0 0.00 0.00 0.00 67 1024.7
20260902153434 79 185 0.0 2.0 0.00 0.00 0.00 62 1022.1
20260902153428 79 190 1.0 3.0 0.00 0.00 0.00 62 1022.2
20260902153423 84 309 3.0 8.0 0.00 0.00 0.00 66 1024.7
20260902153411 84 61 3.0 8.0 0.00 0.00 0.00 66 1024.6
20260902153248 84 317 3.0 8.0 0.00 0.00 0.00 66 1024.7
20260902153126 80 209 2.0 3.0 0.00 0.00 0.00 69 1024.1
20260902153118 79 200 1.0 3.0 0.00 0.00 0.00 66 1023.2
20260902153112 78 194 0.0 0.0 0.00 0.00 0.00 67 1022.7
20260902153100 84 355 2.0 6.0 0.00 0.00 0.00 65 1024.6
20260902153009 84 315 2.0 5.0 0.00 0.00 0.00 66 1024.6
20260902152941 84 225 3.0 5.0 0.00 0.00 0.00 66 1024.7
20260902152825 79 185 0.0 2.0 0.00 0.00 0.00 62 1022.1
20260902152816 79 185 0.0 2.0 0.00 0.00 0.00 68 1022.2
20260902152802 84 304 3.0 6.0 0.00 0.00 0.00 66 1024.7
20260902152754 84 5 3.0 9.0 0.00 0.00 0.00 66 1024.8
20260902152748 83 318 3.0 8.0 0.00 0.00 0.00 64 1024.5
20260902152742 82 218 2.0 4.0 0.00 0.00 0.00 66 1024.4
20260902152731 82 224 1.0 3.0 0.00 0.00 0.00 67 1024.3
20260902152725 81 196 1.0 4.0 0.00 0.00 0.00 67 1024.1
20260902152700 84 308 3.0 8.0 0.00 0.00 0.00 66 1024.7
20260902152651 81 207 1.0 4.0 0.00 0.00 0.00 68 1024.1
20260902152645 81 221 1.0 4.0 0.00 0.00 0.00 70 1024.1
20260902152639 80 221 1.0 3.0 0.00 0.00 0.00 69 1024.1
20260902152633 80 213 1.0 3.0 0.00 0.00 0.00 69 1024.1
20260902152619 84 277 3.0 8.0 0.00 0.00 0.00 66 1024.7
20260902152555 84 344 3.0 8.0 0.00 0.00 0.00 65 1024.6
20260902152439 79 202 1.0 3.0 0.00 0.00 0.00 69 1023.9
20260902152432 84 327 3.0 8.0 0.00 0.00 0.00 65 1024.7
20260902152420 84 326 3.0 8.0 0.00 0.00 0.00 65 1024.6
20260902152247 79 204 0.0 0.0 0.00 0.00 0.00 69 1023.8
20260902152243 79 204 1.0 3.0 0.00 0.00 0.00 69 1023.5
20260902152209 84 325 3.0 8.0 0.00 0.00 0.00 66 1024.7
20260902152134 84 341 3.0 8.0 0.00 0.00 0.00 65 1024.7
20260902152014 78 200 0.0 0.0 0.00 0.00 0.00 68 1023.0
20260902152001 84 322 3.0 8.0 0.00 0.00 0.00 65 1024.7
20260902151948 78 200 0.0 0.0 0.00 0.00 0.00 68 1022.9
20260902151944 78 201 0.0 0.0 0.00 0.00 0.00 68 1022.9
20260902151938 78 201 0.0 0.0 0.00 0.00 0.00 69 1022.9
20260902151932 78 201 0.0 0.0 0.00 0.00 0.00 69 1022.9
20260902151927 84 254 3.0 8.0 0.00 0.00 0.00 67 1024.7
20260902151922 84 319 3.0 8.0 0.00 0.00 0.00 66 1024.8
20260902151905 84 261 3.0 8.0 0.00 0.00 0.00 65 1024.8
20260902151845 84 277 3.0 8.0 0.00 0.00 0.00 66 1024.8
20260902151823 84 254 3.0 8.0 0.00 0.00 0.00 67 1024.7
20260902151528 78 194 0.0 0.0 0.00 0.00 0.00 68 1022.7
20260902151523 78 193 0.0 0.0 0.00 0.00 0.00 66 1022.6
20260902151518 78 193 0.0 0.0 0.00 0.00 0.00 67 1022.6
20260902151512 78 193 0.0 0.0 0.00 0.00 0.00 65 1022.5
20260902151508 78 193 0.0 0.0 0.00 0.00 0.00 64 1022.6
20260902151456 84 296 3.0 8.0 0.00 0.00 0.00 67 1024.8
20260902151446 78 191 0.0 0.0 0.00 0.00 0.00 64 1022.5
20260902151435 78 191 0.0 0.0 0.00 0.00 0.00 65 1022.4
20260902151430 78 191 0.0 0.0 0.00 0.00 0.00 62 1022.3
20260902151424 78 191 0.0 0.0 0.00 0.00 0.00 62 1022.3
20260902151415 78 191 0.0 0.0 0.00 0.00 0.00 62 1022.3
20260902151409 78 191 0.0 0.0 0.00 0.00 0.00 64 1022.3
20260902151404 78 191 0.0 0.0 0.00 0.00 0.00 64 1022.3
20260902151351 84 5 2.0 8.0 0.00 0.00 0.00 66 1024.7
20260902151344 78 191 0.0 0.0 0.00 0.00 0.00 64 1022.3
20260902151331 78 190 1.0 2.0 0.00 0.00 0.00 66 1022.2
20260902151326 79 190 1.0 2.0 0.00 0.00 0.00 64 1022.1
20260902151306 84 330 3.0 9.0 0.00 0.00 0.00 66 1024.8
20260902151237 84 330 3.0 9.0 0.00 0.00 0.00 66 1024.8
20260902151113 84 238 3.0 9.0 0.00 0.00 0.00 66 1024.8
20260902151057 84 309 2.0 9.0 0.00 0.00 0.00 66 1024.8
20260902151037 84 304 2.0 9.0 0.00 0.00 0.00 66 1024.8
20260902150851 84 311 3.0 9.0 0.00 0.00 0.00 67 1024.8
20260902150601 79 190 2.0 3.0 0.00 0.00 0.00 63 1022.2
20260902150555 79 188 1.0 3.0 0.00 0.00 0.00 62 1022.2
20260902150543 84 355 3.0 9.0 0.00 0.00 0.00 66 1024.8
20260902150520 84 355 3.0 9.0 0.00 0.00 0.00 67 1024.8
20260902150400 83 277 3.0 7.0 0.00 0.00 0.00 65 1024.7
20260902150355 83 309 3.0 7.0 0.00 0.00 0.00 66 1024.7
20260902150343 83 283 3.0 9.0 0.00 0.00 0.00 66 1024.8
20260902150335 83 324 3.0 7.0 0.00 0.00 0.00 64 1024.7
20260902150329 83 327 3.0 7.0 0.00 0.00 0.00 65 1024.6
20260902150323 83 297 3.0 8.0 0.00 0.00 0.00 65 1024.6
20260902150318 83 271 3.0 8.0 0.00 0.00 0.00 65 1024.6
20260902150308 83 229 3.0 7.0 0.00 0.00 0.00 66 1024.7
20260902150245 83 15 3.0 7.0 0.00 0.00 0.00 67 1024.7
20260902150133 83 334 4.0 8.0 0.00 0.00 0.00 65 1024.4
20260902150128 83 298 3.0 7.0 0.00 0.00 0.00 65 1024.5
20260902150121 82 253 1.0 4.0 0.00 0.00 0.00 66 1024.3
20260902150117 82 314 1.0 4.0 0.00 0.00 0.00 65 1024.4
20260902150103 83 300 3.0 7.0 0.00 0.00 0.00 66 1024.7
20260902150038 83 300 3.0 7.0 0.00 0.00 0.00 66 1024.7
20260902145729 83 307 3.0 7.0 0.00 0.00 0.00 66 1024.7
20260902145613 82 218 2.0 6.0 0.00 0.00 0.00 66 1024.3
20260902145607 82 211 2.0 6.0 0.00 0.00 0.00 66 1024.4
20260902145603 82 206 2.0 6.0 0.00 0.00 0.00 66 1024.4
20260902145557 82 206 2.0 6.0 0.00 0.00 0.00 66 1024.4
20260902145545 83 219 3.0 7.0 0.00 0.00 0.00 66 1024.7
20260902145538 82 206 2.0 6.0 0.00 0.00 0.00 67 1024.4
20260902145530 82 205 3.0 6.0 0.00 0.00 0.00 67 1024.4
20260902145524 82 207 2.0 6.0 0.00 0.00 0.00 66 1024.3
20260902145518 82 217 2.0 6.0 0.00 0.00 0.00 66 1024.4
20260902145514 82 230 2.0 5.0 0.00 0.00 0.00 67 1024.3
20260902145508 82 211 2.0 4.0 0.00 0.00 0.00 66 1024.4
20260902145501 82 203 2.0 4.0 0.00 0.00 0.00 66 1024.3
20260902145455 82 223 2.0 4.0 0.00 0.00 0.00 67 1024.3
20260902145445 83 219 3.0 7.0 0.00 0.00 0.00 66 1024.7
20260902145424 83 341 3.0 7.0 0.00 0.00 0.00 65 1024.7
20260902145306 82 244 1.0 4.0 0.00 0.00 0.00 67 1024.3
20260902145300 82 236 1.0 4.0 0.00 0.00 0.00 67 1024.2
20260902145245 83 347 3.0 7.0 0.00 0.00 0.00 65 1024.7
20260902145239 82 236 1.0 4.0 0.00 0.00 0.00 67 1024.3
20260902145233 81 205 2.0 4.0 0.00 0.00 0.00 67 1024.2
20260902145230 81 196 1.0 4.0 0.00 0.00 0.00 67 1024.1
20260902145221 81 232 1.0 4.0 0.00 0.00 0.00 67 1024.2
20260902145214 81 207 1.0 4.0 0.00 0.00 0.00 68 1024.2
20260902145159 83 310 3.0 7.0 0.00 0.00 0.00 65 1024.7
20260902145141 83 306 3.0 7.0 0.00 0.00 0.00 65 1024.7
20260902145117 83 323 3.0 7.0 0.00 0.00 0.00 65 1024.6
20260902144719 81 224 1.0 4.0 0.00 0.00 0.00 69 1024.2
20260902144707 83 296 2.0 5.0 0.00 0.00 0.00 64 1024.7
20260902144539 81 224 1.0 4.0 0.00 0.00 0.00 68 1024.2
20260902144522 83 234 3.0 8.0 0.00 0.00 0.00 65 1024.6
20260902144339 81 219 1.0 4.0 0.00 0.00 0.00 69 1024.1
20260902144333 81 221 1.0 4.0 0.00 0.00 0.00 69 1024.1
20260902144327 81 221 1.0 4.0 0.00 0.00 0.00 68 1024.1
20260902144316 83 342 3.0 8.0 0.00 0.00 0.00 65 1024.5
20260902144304 83 219 3.0 8.0 0.00 0.00 0.00 65 1024.4
20260902144012 83 317 3.0 8.0 0.00 0.00 0.00 64 1024.4
20260902143953 83 336 3.0 8.0 0.00 0.00 0.00 65 1024.5
20260902143709 80 221 1.0 3.0 0.00 0.00 0.00 69 1024.1
20260902143703 80 221 1.0 3.0 0.00 0.00 0.00 69 1024.2
20260902143657 80 217 1.0 3.0 0.00 0.00 0.00 69 1024.1
20260902143652 80 217 1.0 3.0 0.00 0.00 0.00 69 1024.1
20260902143640 83 290 3.0 8.0 0.00 0.00 0.00 64 1024.4
20260902143632 80 217 2.0 3.0 0.00 0.00 0.00 69 1024.1
20260902143626 80 217 2.0 3.0 0.00 0.00 0.00 69 1024.2
20260902143620 80 217 2.0 3.0 0.00 0.00 0.00 69 1024.2
20260902143615 80 217 2.0 4.0 0.00 0.00 0.00 69 1024.2
20260902143603 83 295 3.0 7.0 0.00 0.00 0.00 65 1024.5
20260902143431 80 215 2.0 4.0 0.00 0.00 0.00 69 1024.1
20260902143423 80 216 2.0 3.0 0.00 0.00 0.00 69 1024.1
20260902143418 80 216 2.0 3.0 0.00 0.00 0.00 69 1024.1
20260902143413 80 213 1.0 3.0 0.00 0.00 0.00 69 1024.1
20260902143359 83 276 3.0 7.0 0.00 0.00 0.00 64 1024.4
20260902143335 83 294 3.0 7.0 0.00 0.00 0.00 65 1024.5
20260902143222 80 213 1.0 3.0 0.00 0.00 0.00 69 1024.2
20260902143217 80 209 1.0 3.0 0.00 0.00 0.00 69 1024.1
20260902143211 80 209 1.0 2.0 0.00 0.00 0.00 69 1024.1
20260902143205 80 209 1.0 2.0 0.00 0.00 0.00 70 1024.0
20260902143200 80 209 1.0 2.0 0.00 0.00 0.00 70 1024.1
20260902143154 80 209 1.0 3.0 0.00 0.00 0.00 70 1024.1
20260902143142 83 288 3.0 7.0 0.00 0.00 0.00 65 1024.4
20260902143136 80 209 2.0 3.0 0.00 0.00 0.00 70 1024.0
20260902143129 80 209 2.0 3.0 0.00 0.00 0.00 70 1024.0
20260902143124 80 209 2.0 3.0 0.00 0.00 0.00 70 1024.1
20260902143106 83 306 2.0 7.0 0.00 0.00 0.00 65 1024.4
20260902143043 83 290 2.0 6.0 0.00 0.00 0.00 64 1024.4
20260902143024 83 345 2.0 6.0 0.00 0.00 0.00 66 1024.4
20260902143003 83 306 2.0 4.0 0.00 0.00 0.00 65 1024.4
20260902142944 82 319 2.0 4.0 0.00 0.00 0.00 66 1024.4
20260902142926 82 281 2.0 4.0 0.00 0.00 0.00 66 1024.4
20260902142322 82 218 2.0 6.0 0.00 0.00 0.00 67 1024.4
20260902142308 82 218 2.0 6.0 0.00 0.00 0.00 67 1024.4
20260902140806 82 243 1.0 3.0 0.00 0.00 0.00 67 1024.3
20260902140750 82 244 1.0 3.0 0.00 0.00 0.00 67 1024.3
20260902140226 80 209 2.0 3.0 0.00 0.00 0.00 70 1024.0
20260902140220 80 209 2.0 3.0 0.00 0.00 0.00 69 1024.1
20260902140216 80 209 2.0 3.0 0.00 0.00 0.00 69 1024.1
20260902140202 82 206 1.0 4.0 0.00 0.00 0.00 67 1024.3
20260902140037 82 206 2.0 4.0 0.00 0.00 0.00 67 1024.3
20260902140030 80 204 1.0 3.0 0.00 0.00 0.00 69 1024.0
20260902140025 80 204 1.0 3.0 0.00 0.00 0.00 70 1024.0
20260902140020 80 204 1.0 3.0 0.00 0.00 0.00 70 1024.0
20260902140015 79 202 1.0 2.0 0.00 0.00 0.00 70 1024.1
20260902140009 79 202 1.0 2.0 0.00 0.00 0.00 70 1024.0
20260902140005 79 202 1.0 3.0 0.00 0.00 0.00 70 1024.0
20260902135934 81 206 2.0 4.0 0.00 0.00 0.00 68 1024.3
20260902135927 79 202 1.0 3.0 0.00 0.00 0.00 70 1024.0
20260902135923 79 202 1.0 3.0 0.00 0.00 0.00 69 1023.9
20260902135917 79 202 1.0 3.0 0.00 0.00 0.00 69 1023.9
20260902135911 79 202 1.0 3.0 0.00 0.00 0.00 69 1023.9
20260902135856 81 206 2.0 4.0 0.00 0.00 0.00 68 1024.2
20260902135843 81 206 2.0 4.0 0.00 0.00 0.00 68 1024.2
20260902135828 81 205 2.0 4.0 0.00 0.00 0.00 67 1024.2
20260902135456 79 202 1.0 3.0 0.00 0.00 0.00 69 1024.0
20260902135443 81 205 2.0 4.0 0.00 0.00 0.00 67 1024.3
20260902135418 81 249 1.0 4.0 0.00 0.00 0.00 67 1024.2
20260902135357 81 250 1.0 4.0 0.00 0.00 0.00 67 1024.2
20260902135339 81 198 1.0 4.0 0.00 0.00 0.00 67 1024.2
20260902135324 81 196 1.0 4.0 0.00 0.00 0.00 67 1024.2
20260902135302 81 196 1.0 4.0 0.00 0.00 0.00 67 1024.2
20260902135133 81 196 1.0 4.0 0.00 0.00 0.00 67 1024.2
20260902134922 81 207 0.0 4.0 0.00 0.00 0.00 68 1024.1
20260902134250 81 219 1.0 3.0 0.00 0.00 0.00 69 1024.2
20260902133708 81 221 1.0 4.0 0.00 0.00 0.00 69 1024.1
20260902133701 79 202 1.0 3.0 0.00 0.00 0.00 69 1023.9
20260902133657 79 202 0.0 2.0 0.00 0.00 0.00 69 1023.9
20260902133651 79 204 0.0 2.0 0.00 0.00 0.00 69 1023.8
20260902133646 79 204 0.0 2.0 0.00 0.00 0.00 69 1023.9
20260902133640 79 204 0.0 0.0 0.00 0.00 0.00 69 1023.8
20260902133625 81 221 1.0 4.0 0.00 0.00 0.00 69 1024.1
20260902133610 81 221 1.0 4.0 0.00 0.00 0.00 69 1024.2
20260902133558 81 221 1.0 4.0 0.00 0.00 0.00 69 1024.1
20260902133542 81 221 1.0 4.0 0.00 0.00 0.00 69 1024.1
20260902133235 81 221 1.0 4.0 0.00 0.00 0.00 69 1024.1
20260902133221 81 221 1.0 3.0 0.00 0.00 0.00 69 1024.1
20260902133208 81 221 1.0 3.0 0.00 0.00 0.00 69 1024.2
20260902133151 81 221 1.0 3.0 0.00 0.00 0.00 69 1024.1
20260902131828 80 217 2.0 4.0 0.00 0.00 0.00 69 1024.2
20260902131638 79 204 0.0 0.0 0.00 0.00 0.00 69 1023.7
20260902131634 79 204 0.0 2.0 0.00 0.00 0.00 69 1023.7
20260902131628 79 204 0.0 3.0 0.00 0.00 0.00 69 1023.6
20260902131622 79 204 0.0 3.0 0.00 0.00 0.00 69 1023.6
20260902131618 79 204 1.0 3.0 0.00 0.00 0.00 69 1023.7
20260902131612 79 204 1.0 3.0 0.00 0.00 0.00 69 1023.6
20260902131603 80 217 2.0 4.0 0.00 0.00 0.00 69 1024.2
20260902131545 80 217 2.0 4.0 0.00 0.00 0.00 69 1024.1
20260902131524 80 217 2.0 4.0 0.00 0.00 0.00 69 1024.2
20260902131510 80 217 2.0 4.0 0.00 0.00 0.00 69 1024.1
20260902131412 80 218 2.0 4.0 0.00 0.00 0.00 69 1024.1
20260902131357 80 215 2.0 4.0 0.00 0.00 0.00 69 1024.1
20260902131132 80 214 2.0 4.0 0.00 0.00 0.00 69 1024.1
20260902131117 80 216 2.0 3.0 0.00 0.00 0.00 69 1024.2
20260902125738 80 209 1.0 2.0 0.00 0.00 0.00 70 1024.1
20260902125718 80 209 1.0 3.0 0.00 0.00 0.00 70 1024.0
20260902125658 80 209 1.0 3.0 0.00 0.00 0.00 70 1024.1
20260902125556 80 209 1.0 3.0 0.00 0.00 0.00 70 1024.0
20260902125541 80 209 1.0 3.0 0.00 0.00 0.00 70 1024.0
20260902125112 80 209 2.0 3.0 0.00 0.00 0.00 70 1024.0
20260902125058 80 209 2.0 3.0 0.00 0.00 0.00 70 1024.0
20260902125044 80 209 2.0 3.0 0.00 0.00 0.00 70 1024.0
20260902124234 80 208 1.0 3.0 0.00 0.00 0.00 69 1024.0
20260902124214 80 209 1.0 3.0 0.00 0.00 0.00 69 1024.0
20260902123704 79 204 1.0 3.0 0.00 0.00 0.00 68 1023.6
20260902123659 79 204 1.0 3.0 0.00 0.00 0.00 68 1023.6
20260902123654 79 204 1.0 3.0 0.00 0.00 0.00 68 1023.6
20260902123648 79 204 1.0 3.0 0.00 0.00 0.00 68 1023.5
20260902123643 79 200 0.0 3.0 0.00 0.00 0.00 68 1023.6
20260902123639 79 200 0.0 3.0 0.00 0.00 0.00 67 1023.5
20260902123634 79 200 0.0 3.0 0.00 0.00 0.00 67 1023.5
20260902123623 80 203 1.0 3.0 0.00 0.00 0.00 70 1024.0
20260902123617 79 200 0.0 3.0 0.00 0.00 0.00 67 1023.6
20260902123611 79 200 0.0 2.0 0.00 0.00 0.00 67 1023.5
20260902123557 79 203 1.0 3.0 0.00 0.00 0.00 71 1024.1
20260902123321 79 202 1.0 2.0 0.00 0.00 0.00 71 1024.0
20260902123314 79 200 1.0 2.0 0.00 0.00 0.00 67 1023.5
20260902123309 79 200 1.0 3.0 0.00 0.00 0.00 67 1023.5
20260902123304 79 200 1.0 3.0 0.00 0.00 0.00 66 1023.4
20260902123300 79 200 1.0 3.0 0.00 0.00 0.00 66 1023.4
20260902123255 79 200 1.0 3.0 0.00 0.00 0.00 66 1023.2
20260902123249 79 200 1.0 3.0 0.00 0.00 0.00 66 1023.2
20260902123238 79 202 1.0 2.0 0.00 0.00 0.00 71 1024.0
20260902123222 79 202 1.0 2.0 0.00 0.00 0.00 70 1024.0
20260902123207 79 202 1.0 2.0 0.00 0.00 0.00 70 1024.0
20260902122734 79 200 1.0 3.0 0.00 0.00 0.00 66 1023.2
20260902122720 79 202 1.0 3.0 0.00 0.00 0.00 70 1024.0
20260902122703 79 200 0.0 0.0 0.00 0.00 0.00 66 1023.0
20260902122656 78 200 0.0 0.0 0.00 0.00 0.00 66 1023.1
20260902122650 78 200 0.0 0.0 0.00 0.00 0.00 66 1023.2
20260902122646 78 200 0.0 0.0 0.00 0.00 0.00 66 1023.1
20260902122639 79 200 0.0 0.0 0.00 0.00 0.00 67 1023.1
20260902122634 78 200 0.0 0.0 0.00 0.00 0.00 68 1023.0
20260902122629 78 200 0.0 0.0 0.00 0.00 0.00 68 1022.9
20260902122617 79 202 1.0 3.0 0.00 0.00 0.00 70 1024.0
20260902122525 79 202 1.0 3.0 0.00 0.00 0.00 70 1024.0
20260902122511 79 202 1.0 3.0 0.00 0.00 0.00 70 1024.0
20260902122229 78 200 0.0 0.0 0.00 0.00 0.00 68 1022.9
20260902122215 79 202 1.0 3.0 0.00 0.00 0.00 70 1023.9
20260902122159 79 202 1.0 3.0 0.00 0.00 0.00 70 1024.0
20260902122143 79 202 1.0 3.0 0.00 0.00 0.00 70 1024.0
20260902122129 79 202 1.0 3.0 0.00 0.00 0.00 70 1023.9
20260902121236 78 200 0.0 0.0 0.00 0.00 0.00 68 1023.0
20260902121232 78 201 0.0 0.0 0.00 0.00 0.00 68 1022.9
20260902121227 78 201 0.0 0.0 0.00 0.00 0.00 68 1022.9
20260902121214 79 202 1.0 3.0 0.00 0.00 0.00 69 1023.9
20260902121202 79 202 0.0 3.0 0.00 0.00 0.00 69 1024.0
20260902120926 79 204 0.0 2.0 0.00 0.00 0.00 69 1023.8
20260902120911 79 204 0.0 2.0 0.00 0.00 0.00 69 1023.9
20260902120845 79 204 0.0 2.0 0.00 0.00 0.00 69 1023.8
20260902120130 78 201 0.0 0.0 0.00 0.00 0.00 68 1022.8
20260902120112 79 204 0.0 0.0 0.00 0.00 0.00 69 1023.8
20260902115955 78 201 0.0 0.0 0.00 0.00 0.00 69 1022.9
20260902115944 79 204 0.0 0.0 0.00 0.00 0.00 69 1023.8
20260902115928 79 204 0.0 1.0 0.00 0.00 0.00 69 1023.8
20260902115910 79 204 0.0 2.0 0.00 0.00 0.00 69 1023.7
20260902115855 79 204 0.0 2.0 0.00 0.00 0.00 69 1023.7
20260902114915 78 201 0.0 0.0 0.00 0.00 0.00 69 1023.0
20260902114856 79 204 1.0 3.0 0.00 0.00 0.00 68 1023.6
20260902114729 79 204 1.0 3.0 0.00 0.00 0.00 68 1023.6
20260902114706 78 201 0.0 0.0 0.00 0.00 0.00 69 1022.9
20260902114700 78 201 0.0 0.0 0.00 0.00 0.00 69 1022.9
20260902114647 79 204 1.0 3.0 0.00 0.00 0.00 68 1023.6
20260902114501 79 201 0.0 2.0 0.00 0.00 0.00 68 1023.6
20260902114339 79 200 0.0 2.0 0.00 0.00 0.00 68 1023.6
20260902114157 79 200 0.0 3.0 0.00 0.00 0.00 67 1023.5
20260902114024 79 200 0.0 3.0 0.00 0.00 0.00 67 1023.5
20260902113628 78 194 0.0 0.0 0.00 0.00 0.00 69 1022.8
20260902113622 78 194 0.0 0.0 0.00 0.00 0.00 69 1022.9
20260902113616 78 194 0.0 0.0 0.00 0.00 0.00 67 1022.9
20260902113604 79 200 0.0 3.0 0.00 0.00 0.00 67 1023.6
20260902113558 78 194 0.0 0.0 0.00 0.00 0.00 66 1022.8
20260902113553 78 194 0.0 0.0 0.00 0.00 0.00 66 1022.9
20260902113546 78 194 0.0 0.0 0.00 0.00 0.00 66 1022.8
20260902113542 78 194 0.0 0.0 0.00 0.00 0.00 66 1022.9
20260902113537 78 194 0.0 0.0 0.00 0.00 0.00 66 1022.8
20260902113531 78 194 0.0 0.0 0.00 0.00 0.00 67 1022.8
20260902113523 79 200 0.0 3.0 0.00 0.00 0.00 67 1023.6
20260902113458 79 200 0.0 3.0 0.00 0.00 0.00 67 1023.5
20260902113338 78 194 0.0 0.0 0.00 0.00 0.00 67 1022.7
20260902113333 78 194 0.0 0.0 0.00 0.00 0.00 68 1022.7
20260902113329 78 194 0.0 0.0 0.00 0.00 0.00 68 1022.7
20260902113323 78 194 0.0 0.0 0.00 0.00 0.00 68 1022.8
20260902113319 78 194 0.0 0.0 0.00 0.00 0.00 68 1022.8
20260902113314 78 194 0.0 0.0 0.00 0.00 0.00 68 1022.7
20260902113303 79 200 0.0 3.0 0.00 0.00 0.00 67 1023.5
20260902113242 79 200 0.0 2.0 0.00 0.00 0.00 67 1023.5
20260902113126 78 194 0.0 0.0 0.00 0.00 0.00 69 1022.7
20260902113120 78 194 0.0 0.0 0.00 0.00 0.00 69 1022.7
20260902113116 78 194 0.0 0.0 0.00 0.00 0.00 69 1022.6
20260902113111 78 194 0.0 0.0 0.00 0.00 0.00 69 1022.6
20260902113105 78 194 0.0 0.0 0.00 0.00 0.00 69 1022.6
20260902113100 78 194 0.0 0.0 0.00 0.00 0.00 68 1022.7
20260902113051 79 200 0.0 2.0 0.00 0.00 0.00 67 1023.4
20260902113044 78 194 0.0 0.0 0.00 0.00 0.00 68 1022.7
20260902113038 78 194 0.0 0.0 0.00 0.00 0.00 68 1022.6
20260902113033 78 194 0.0 0.0 0.00 0.00 0.00 68 1022.6
20260902113026 78 194 0.0 0.0 0.00 0.00 0.00 68 1022.7
20260902113022 78 194 0.0 0.0 0.00 0.00 0.00 68 1022.6
20260902113016 78 194 0.0 0.0 0.00 0.00 0.00 68 1022.6
20260902113003 79 200 0.0 2.0 0.00 0.00 0.00 67 1023.5
20260902112941 79 200 0.0 2.0 0.00 0.00 0.00 67 1023.5
20260902112825 78 193 0.0 0.0 0.00 0.00 0.00 66 1022.5
20260902112821 78 193 0.0 0.0 0.00 0.00 0.00 67 1022.6
20260902112816 78 193 0.0 0.0 0.00 0.00 0.00 67 1022.5
20260902112802 79 200 0.0 2.0 0.00 0.00 0.00 67 1023.6
20260902112748 79 200 0.0 2.0 0.00 0.00 0.00 67 1023.5
20260902112730 79 200 0.0 2.0 0.00 0.00 0.00 67 1023.5
20260902112233 79 200 1.0 3.0 0.00 0.00 0.00 67 1023.5
20260902112215 79 200 1.0 3.0 0.00 0.00 0.00 67 1023.5
20260902112200 79 200 1.0 3.0 0.00 0.00 0.00 67 1023.4
20260902112147 79 200 1.0 3.0 0.00 0.00 0.00 67 1023.4
20260902111640 79 200 1.0 3.0 0.00 0.00 0.00 66 1023.2
20260902111048 78 193 0.0 0.0 0.00 0.00 0.00 67 1022.5
20260902111043 78 193 0.0 0.0 0.00 0.00 0.00 67 1022.6
20260902111038 78 193 0.0 0.0 0.00 0.00 0.00 67 1022.5
20260902111026 79 200 1.0 3.0 0.00 0.00 0.00 66 1023.2
20260902111017 78 193 0.0 0.0 0.00 0.00 0.00 67 1022.6
20260902111012 78 193 0.0 0.0 0.00 0.00 0.00 67 1022.6
20260902111006 78 193 0.0 0.0 0.00 0.00 0.00 67 1022.5
20260902111002 78 193 0.0 0.0 0.00 0.00 0.00 67 1022.5
20260902110957 78 193 0.0 0.0 0.00 0.00 0.00 66 1022.5
20260902110948 79 200 0.0 3.0 0.00 0.00 0.00 66 1023.1
20260902110928 79 200 0.0 3.0 0.00 0.00 0.00 66 1023.2
20260902110812 78 193 0.0 0.0 0.00 0.00 0.00 65 1022.5
20260902110806 78 193 0.0 0.0 0.00 0.00 0.00 65 1022.6
20260902110751 79 200 0.0 2.0 0.00 0.00 0.00 66 1023.1
20260902110626 78 200 0.0 0.0 0.00 0.00 0.00 66 1023.1
20260902110619 78 191 0.0 0.0 0.00 0.00 0.00 64 1022.5
20260902110604 78 200 0.0 0.0 0.00 0.00 0.00 66 1023.1
20260902110546 78 200 0.0 0.0 0.00 0.00 0.00 66 1023.1
20260902105951 78 191 0.0 0.0 0.00 0.00 0.00 64 1022.4
20260902105946 78 191 0.0 0.0 0.00 0.00 0.00 64 1022.5
20260902105941 78 191 0.0 0.0 0.00 0.00 0.00 65 1022.4
20260902105932 78 200 0.0 0.0 0.00 0.00 0.00 66 1023.1
20260902105914 79 200 0.0 0.0 0.00 0.00 0.00 66 1023.1
20260902105906 79 200 0.0 0.0 0.00 0.00 0.00 66 1023.1
20260902105844 79 200 0.0 0.0 0.00 0.00 0.00 67 1023.1
20260902105601 78 200 0.0 0.0 0.00 0.00 0.00 67 1023.0
20260902105542 78 200 0.0 0.0 0.00 0.00 0.00 68 1023.0
20260902105520 78 200 0.0 0.0 0.00 0.00 0.00 67 1023.0
20260902105057 78 200 0.0 0.0 0.00 0.00 0.00 68 1023.0
20260902105040 78 200 0.0 0.0 0.00 0.00 0.00 68 1023.0
20260902104954 78 200 0.0 0.0 0.00 0.00 0.00 68 1022.9
20260902103905 78 201 0.0 0.0 0.00 0.00 0.00 68 1022.9
20260902103851 78 201 0.0 0.0 0.00 0.00 0.00 68 1022.9
20260902103837 78 201 0.0 0.0 0.00 0.00 0.00 68 1022.9
20260902103819 78 201 0.0 0.0 0.00 0.00 0.00 68 1022.9
20260902103139 78 191 0.0 0.0 0.00 0.00 0.00 64 1022.4
20260902103133 78 191 0.0 0.0 0.00 0.00 0.00 64 1022.4
20260902103127 78 191 0.0 0.0 0.00 0.00 0.00 64 1022.4
20260902103120 78 191 0.0 0.0 0.00 0.00 0.00 62 1022.4
20260902103109 78 201 0.0 0.0 0.00 0.00 0.00 69 1022.9
20260902102931 78 191 0.0 0.0 0.00 0.00 0.00 62 1022.3
20260902102926 78 191 0.0 0.0 0.00 0.00 0.00 62 1022.3
20260902102908 78 201 0.0 0.0 0.00 0.00 0.00 68 1022.9
20260902102841 78 201 0.0 0.0 0.00 0.00 0.00 69 1023.0
20260902102808 78 201 0.0 0.0 0.00 0.00 0.00 69 1022.9
20260902102747 78 201 0.0 0.0 0.00 0.00 0.00 68 1022.9
20260902102442 78 201 0.0 0.0 0.00 0.00 0.00 69 1022.9
20260902102023 78 191 0.0 0.0 0.00 0.00 0.00 62 1022.3
20260902102015 78 194 0.0 0.0 0.00 0.00 0.00 69 1022.9
20260902101946 78 194 0.0 0.0 0.00 0.00 0.00 69 1022.9
20260902101912 78 194 0.0 0.0 0.00 0.00 0.00 68 1022.9
20260902101855 78 194 0.0 0.0 0.00 0.00 0.00 68 1022.9
20260902101826 78 194 0.0 0.0 0.00 0.00 0.00 67 1022.9
20260902101757 78 194 0.0 0.0 0.00 0.00 0.00 67 1022.9
20260902101147 78 194 0.0 0.0 0.00 0.00 0.00 66 1022.8
20260902101058 78 194 0.0 0.0 0.00 0.00 0.00 66 1022.8
20260902100607 78 194 0.0 0.0 0.00 0.00 0.00 67 1022.7
20260902100554 78 194 0.0 0.0 0.00 0.00 0.00 67 1022.7
20260902100513 78 194 0.0 0.0 0.00 0.00 0.00 68 1022.7
20260902100457 78 194 0.0 0.0 0.00 0.00 0.00 68 1022.8
20260902100431 78 194 0.0 0.0 0.00 0.00 0.00 68 1022.7
20260902100353 78 194 0.0 0.0 0.00 0.00 0.00 68 1022.7
20260902094906 78 194 0.0 0.0 0.00 0.00 0.00 68 1022.7
20260902094229 78 194 0.0 0.0 0.00 0.00 0.00 68 1022.6
20260902094028 78 194 0.0 0.0 0.00 0.00 0.00 68 1022.6
20260902094007 78 194 0.0 0.0 0.00 0.00 0.00 68 1022.6
20260902093754 78 191 0.0 0.0 0.00 0.00 0.00 62 1022.3
20260902093749 78 191 0.0 0.0 0.00 0.00 0.00 62 1022.3
20260902093742 78 191 0.0 0.0 0.00 0.00 0.00 62 1022.2
20260902093738 78 191 0.0 0.0 0.00 0.00 0.00 63 1022.3
20260902093733 78 191 0.0 0.0 0.00 0.00 0.00 64 1022.3
20260902093727 78 191 0.0 0.0 0.00 0.00 0.00 64 1022.3
20260902093720 78 191 0.0 0.0 0.00 0.00 0.00 64 1022.3
20260902093708 78 194 0.0 0.0 0.00 0.00 0.00 68 1022.6
20260902093650 78 194 0.0 0.0 0.00 0.00 0.00 68 1022.6
20260902093415 78 194 0.0 0.0 0.00 0.00 0.00 67 1022.6
20260902093355 78 194 0.0 0.0 0.00 0.00 0.00 67 1022.6
20260902093228 78 194 0.0 0.0 0.00 0.00 0.00 66 1022.5
20260902093212 78 193 0.0 0.0 0.00 0.00 0.00 66 1022.5
20260902093156 78 193 0.0 0.0 0.00 0.00 0.00 66 1022.6
20260902092852 78 193 0.0 0.0 0.00 0.00 0.00 66 1022.5
20260902092835 78 193 0.0 0.0 0.00 0.00 0.00 66 1022.5
20260902092819 78 193 0.0 0.0 0.00 0.00 0.00 66 1022.6
20260902092648 78 193 0.0 0.0 0.00 0.00 0.00 67 1022.5
20260902090005 78 191 0.0 0.0 0.00 0.00 0.00 64 1022.4
20260902085727 78 191 0.0 0.0 0.00 0.00 0.00 64 1022.3
20260902085717 78 191 0.0 0.0 0.00 0.00 0.00 64 1022.3
20260902085655 78 191 0.0 0.0 0.00 0.00 0.00 64 1022.3
20260902085640 78 191 0.0 0.0 0.00 0.00 0.00 64 1022.4
20260902085625 78 191 0.0 0.0 0.00 0.00 0.00 63 1022.3
20260902085612 78 191 0.0 0.0 0.00 0.00 0.00 63 1022.3
20260902085556 78 191 0.0 0.0 0.00 0.00 0.00 63 1022.4
20260902085539 78 191 0.0 0.0 0.00 0.00 0.00 62 1022.3
20260902085309 78 191 0.0 0.0 0.00 0.00 0.00 62 1022.3
20260902084401 78 191 0.0 0.0 0.00 0.00 0.00 62 1022.3
20260902084319 78 191 0.0 0.0 0.00 0.00 0.00 62 1022.3
20260902083959 78 191 0.0 0.0 0.00 0.00 0.00 63 1022.2
20260902083810 78 191 0.0 0.0 0.00 0.00 0.00 64 1022.2
20260902083755 78 191 0.0 0.0 0.00 0.00 0.00 64 1022.2
20260902083742 78 191 0.0 0.0 0.00 0.00 0.00 64 1022.3
20260902082516 78 185 1.0 2.0 0.00 0.00 0.00 68 1022.1
20260902082511 78 191 0.0 2.0 0.00 0.00 0.00 65 1022.2
20260902082504 78 191 1.0 2.0 0.00 0.00 0.00 66 1022.1
20260902082459 78 191 1.0 2.0 0.00 0.00 0.00 66 1022.1
20260902082453 78 191 1.0 2.0 0.00 0.00 0.00 66 1022.2
20260902082448 78 190 1.0 2.0 0.00 0.00 0.00 66 1022.1
20260902082439 78 191 0.0 0.0 0.00 0.00 0.00 64 1022.2
20260902082418 78 191 0.0 1.0 0.00 0.00 0.00 64 1022.3
20260902082308 79 190 1.0 2.0 0.00 0.00 0.00 66 1022.2
20260902082252 78 191 0.0 2.0 0.00 0.00 0.00 64 1022.2
20260902082232 78 191 0.0 2.0 0.00 0.00 0.00 65 1022.2
20260902082035 78 191 0.0 2.0 0.00 0.00 0.00 66 1022.2
20260902081924 79 190 1.0 2.0 0.00 0.00 0.00 64 1022.2
20260902081920 79 190 1.0 3.0 0.00 0.00 0.00 63 1022.1
20260902081914 79 190 1.0 3.0 0.00 0.00 0.00 62 1022.1
20260902081910 79 190 1.0 3.0 0.00 0.00 0.00 61 1022.1
20260902081906 79 190 1.0 2.0 0.00 0.00 0.00 61 1022.2
20260902081902 79 190 1.0 3.0 0.00 0.00 0.00 62 1022.2
20260902081856 79 190 1.0 3.0 0.00 0.00 0.00 62 1022.2
20260902081844 78 191 0.0 2.0 0.00 0.00 0.00 66 1022.2
20260902081828 78 191 0.0 2.0 0.00 0.00 0.00 66 1022.2
20260902081812 78 191 1.0 2.0 0.00 0.00 0.00 66 1022.2
20260902081755 78 191 1.0 2.0 0.00 0.00 0.00 66 1022.2
20260902080938 79 190 1.0 3.0 0.00 0.00 0.00 62 1022.1
20260902080926 78 190 1.0 2.0 0.00 0.00 0.00 66 1022.1
20260902080915 79 190 1.0 3.0 0.00 0.00 0.00 62 1022.2
20260902080901 78 190 1.0 2.0 0.00 0.00 0.00 66 1022.1
20260902080842 78 190 1.0 2.0 0.00 0.00 0.00 66 1022.1
20260902080828 79 190 1.0 2.0 0.00 0.00 0.00 66 1022.1
20260902080345 79 190 1.0 3.0 0.00 0.00 0.00 63 1022.2
20260902080339 79 188 1.0 3.0 0.00 0.00 0.00 62 1022.1
20260902080330 79 190 1.0 2.0 0.00 0.00 0.00 64 1022.2
20260902075939 79 190 1.0 3.0 0.00 0.00 0.00 61 1022.1
20260902075813 79 190 1.0 3.0 0.00 0.00 0.00 61 1022.2
20260902075806 79 185 0.0 2.0 0.00 0.00 0.00 62 1022.1
20260902075751 79 190 1.0 3.0 0.00 0.00 0.00 61 1022.2
20260902075712 79 190 1.0 3.0 0.00 0.00 0.00 61 1022.1
20260902075658 79 190 1.0 3.0 0.00 0.00 0.00 61 1022.1
20260902075644 79 190 1.0 3.0 0.00 0.00 0.00 61 1022.2
20260902075626 79 190 1.0 3.0 0.00 0.00 0.00 61 1022.2
20260902075211 79 190 1.0 2.0 0.00 0.00 0.00 61 1022.1
20260902075159 79 190 1.0 2.0 0.00 0.00 0.00 61 1022.1
20260902075148 79 190 1.0 3.0 0.00 0.00 0.00 61 1022.2
20260902074628 79 190 1.0 3.0 0.00 0.00 0.00 62 1022.2
20260902074611 79 190 1.0 3.0 0.00 0.00 0.00 62 1022.1
20260902073606 79 188 1.0 3.0 0.00 0.00 0.00 62 1022.2
20260902073550 79 188 1.0 3.0 0.00 0.00 0.00 61 1022.1
20260902073437 79 185 0.0 2.0 0.00 0.00 0.00 62 1022.2
20260902073432 79 185 0.0 2.0 0.00 0.00 0.00 62 1022.1
20260902073427 79 185 0.0 1.0 0.00 0.00 0.00 63 1022.1
20260902073421 79 185 0.0 0.0 0.00 0.00 0.00 67 1022.1
20260902073415 79 185 0.0 0.0 0.00 0.00 0.00 67 1022.0
20260902073410 79 185 0.0 0.0 0.00 0.00 0.00 67 1022.1
20260902073358 79 188 1.0 3.0 0.00 0.00 0.00 61 1022.1
20260902073351 79 185 0.0 0.0 0.00 0.00 0.00 67 1021.9
20260902073346 79 185 0.0 0.0 0.00 0.00 0.00 67 1022.0
20260902073341 79 185 0.0 0.0 0.00 0.00 0.00 68 1022.0
20260902073336 79 185 0.0 0.0 0.00 0.00 0.00 68 1022.0
20260902073330 79 185 0.0 0.0 0.00 0.00 0.00 68 1022.1
20260902073325 79 185 0.0 0.0 0.00 0.00 0.00 68 1022.1
20260902073311 79 188 1.0 3.0 0.00 0.00 0.00 61 1022.2
20260902073255 79 188 1.0 3.0 0.00 0.00 0.00 61 1022.1
20260902073243 79 187 1.0 3.0 0.00 0.00 0.00 61 1022.2
20260902072600 79 185 0.0 0.0 0.00 0.00 0.00 64 1022.1
20260902072447 78 185 0.0 2.0 0.00 0.00 0.00 68 1022.1
20260902072441 78 185 1.0 2.0 0.00 0.00 0.00 68 1022.1
20260902072426 79 185 0.0 0.0 0.00 0.00 0.00 65 1022.1
20260902072408 79 185 0.0 0.0 0.00 0.00 0.00 65 1022.1
20260902072351 79 185 0.0 0.0 0.00 0.00 0.00 66 1022.0
20260902072336 79 185 0.0 0.0 0.00 0.00 0.00 66 1022.1
20260902072322 79 185 0.0 0.0 0.00 0.00 0.00 66 1022.1
20260902071710 79 185 0.0 0.0 0.00 0.00 0.00 67 1022.0
20260902071045 79 185 0.0 0.0 0.00 0.00 0.00 68 1022.0
20260902070838 79 185 0.0 0.0 0.00 0.00 0.00 68 1022.1
20260902070706 78 185 1.0 2.0 0.00 0.00 0.00 68 1022.1
20260902070653 79 185 0.0 0.0 0.00 0.00 0.00 68 1022.1
20260902070645 78 185 0.0 2.0 0.00 0.00 0.00 69 1022.1
20260902070638 78 185 1.0 2.0 0.00 0.00 0.00 68 1022.1
20260902070633 78 185 1.0 2.0 0.00 0.00 0.00 68 1022.1
20260902070626 78 185 1.0 2.0 0.00 0.00 0.00 69 1022.2
20260902070620 78 185 1.0 2.0 0.00 0.00 0.00 69 1022.2
20260902070615 78 185 0.0 2.0 0.00 0.00 0.00 69 1022.2
20260902070609 78 185 0.0 1.0 0.00 0.00 0.00 69 1022.1
20260902070604 78 185 0.0 1.0 0.00 0.00 0.00 69 1022.1
20260902070553 79 185 0.0 0.0 0.00 0.00 0.00 68 1022.1
20260902070546 78 185 0.0 1.0 0.00 0.00 0.00 69 1022.2
20260902070542 79 185 0.0 1.0 0.00 0.00 0.00 69 1022.2
20260902070537 79 185 0.0 1.0 0.00 0.00 0.00 68 1022.2
20260902070533 79 185 0.0 1.0 0.00 0.00 0.00 68 1022.3
20260902070526 79 185 0.0 2.0 0.00 0.00 0.00 68 1022.2
20260902070522 79 185 0.0 2.0 0.00 0.00 0.00 68 1022.2
20260902070507 79 185 0.0 0.0 0.00 0.00 0.00 68 1022.1
20260902070454 79 185 0.0 0.0 0.00 0.00 0.00 68 1022.1
20260902070439 79 185 0.0 1.0 0.00 0.00 0.00 68 1022.1
20260902070421 79 185 0.0 2.0 0.00 0.00 0.00 68 1022.1
20260902070258 78 185 0.0 2.0 0.00 0.00 0.00 68 1022.1
20260902065611 78 185 1.0 2.0 0.00 0.00 0.00 68 1022.1
20260902065553 78 185 1.0 2.0 0.00 0.00 0.00 68 1022.1
20260902065539 78 185 1.0 2.0 0.00 0.00 0.00 68 1022.0
20260902065406 78 185 0.0 2.0 0.00 0.00 0.00 68 1022.1
20260902065158 78 185 0.0 2.0 0.00 0.00 0.00 69 1022.1
20260902065130 78 185 1.0 2.0 0.00 0.00 0.00 69 1022.1
20260902064928 78 185 1.0 2.0 0.00 0.00 0.00 68 1022.2
20260902064615 78 185 1.0 2.0 0.00 0.00 0.00 68 1022.1
20260902064333 78 185 1.0 2.0 0.00 0.00 0.00 69 1022.2
20260902064251 78 185 1.0 2.0 0.00 0.00 0.00 69 1022.2
20260902064204 78 185 1.0 2.0 0.00 0.00 0.00 69 1022.2
20260902064147 78 185 1.0 2.0 0.00 0.00 0.00 69 1022.2
20260902063043 79 185 0.0 2.0 0.00 0.00 0.00 68 1022.3
20260902063038 79 185 0.0 0.0 0.00 0.00 0.00 68 1022.2
20260902063031 80 185 0.0 1.0 0.00 0.00 0.00 68 1022.3
20260902063018 79 185 0.0 2.0 0.00 0.00 0.00 68 1022.3
20260902062929 80 185 0.0 2.0 0.00 0.00 0.00 67 1022.3
20260902062925 80 185 0.0 3.0 0.00 0.00 0.00 67 1022.3
20260902062912 79 185 0.0 2.0 0.00 0.00 0.00 68 1022.2
20260902062859 79 185 0.0 2.0 0.00 0.00 0.00 68 1022.2
20260902062841 79 185 0.0 2.0 0.00 0.00 0.00 68 1022.2
20260902062439 80 185 0.0 3.0 0.00 0.00 0.00 67 1022.3
20260902062433 80 185 0.0 3.0 0.00 0.00 0.00 67 1022.3
20260902062427 80 185 0.0 3.0 0.00 0.00 0.00 67 1022.3
20260902062423 80 185 1.0 3.0 0.00 0.00 0.00 67 1022.4
20260902062417 81 186 1.0 4.0 0.00 0.00 0.00 66 1022.4
20260902062413 81 204 1.0 4.0 0.00 0.00 0.00 66 1022.4
20260902062408 81 204 1.0 4.0 0.00 0.00 0.00 65 1022.4
20260902062402 81 204 1.0 4.0 0.00 0.00 0.00 65 1022.4
20260902062357 81 204 1.0 4.0 0.00 0.00 0.00 65 1022.4
20260902062348 79 185 0.0 2.0 0.00 0.00 0.00 68 1022.3
20260902062341 81 204 1.0 4.0 0.00 0.00 0.00 65 1022.4
20260902062335 81 204 1.0 4.0 0.00 0.00 0.00 65 1022.4
20260902062322 79 185 0.0 2.0 0.00 0.00 0.00 68 1022.3
20260902062307 79 185 0.0 2.0 0.00 0.00 0.00 68 1022.2
20260902061959 79 185 0.0 0.0 0.00 0.00 0.00 68 1022.2
20260902061939 80 185 0.0 1.0 0.00 0.00 0.00 68 1022.2
20260902061812 80 185 0.0 1.0 0.00 0.00 0.00 68 1022.3
20260902061804 80 185 0.0 2.0 0.00 0.00 0.00 67 1022.4
20260902061749 80 185 0.0 2.0 0.00 0.00 0.00 67 1022.3
20260902061726 80 185 0.0 2.0 0.00 0.00 0.00 67 1022.4
20260902061511 80 185 0.0 3.0 0.00 0.00 0.00 67 1022.4
20260902060655 80 185 1.0 3.0 0.00 0.00 0.00 66 1022.4
20260902060635 80 185 1.0 3.0 0.00 0.00 0.00 66 1022.4
20260902060622 80 185 1.0 4.0 0.00 0.00 0.00 66 1022.4
20260902060053 81 204 1.0 4.0 0.00 0.00 0.00 65 1022.4
20260902055411 81 210 1.0 4.0 0.00 0.00 0.00 65 1022.4
20260902055312 81 162 1.0 4.0 0.00 0.00 0.00 65 1022.4
20260902055211 81 162 0.0 4.0 0.00 0.00 0.00 65 1022.5
20260902055151 81 159 0.0 3.0 0.00 0.00 0.00 65 1022.4
20260902055146 81 159 0.0 3.0 0.00 0.00 0.00 65 1022.5
20260902055131 81 161 0.0 3.0 0.00 0.00 0.00 65 1022.5
20260902055113 81 159 0.0 3.0 0.00 0.00 0.00 65 1022.4
20260902054908 81 159 0.0 3.0 0.00 0.00 0.00 65 1022.5
20260902054626 81 126 0.0 0.0 0.00 0.00 0.00 65 1022.5
20260902054621 81 126 0.0 0.0 0.00 0.00 0.00 65 1022.5
20260902054610 81 159 0.0 3.0 0.00 0.00 0.00 65 1022.5
20260902054604 81 126 0.0 0.0 0.00 0.00 0.00 65 1022.5
20260902054558 81 126 0.0 0.0 0.00 0.00 0.00 65 1022.5
20260902054554 81 126 0.0 0.0 0.00 0.00 0.00 65 1022.5
20260902054548 81 126 0.0 0.0 0.00 0.00 0.00 65 1022.4
20260902054543 81 126 0.0 0.0 0.00 0.00 0.00 65 1022.4
20260902054539 81 125 0.0 0.0 0.00 0.00 0.00 65 1022.4
20260902054525 81 132 0.0 3.0 0.00 0.00 0.00 65 1022.5
20260902054506 81 131 0.0 2.0 0.00 0.00 0.00 65 1022.5
20260902054445 81 130 0.0 0.0 0.00 0.00 0.00 65 1022.5
20260902054433 81 130 0.0 0.0 0.00 0.00 0.00 65 1022.5
20260902054413 81 130 0.0 0.0 0.00 0.00 0.00 65 1022.4
20260902054346 81 126 0.0 0.0 0.00 0.00 0.00 65 1022.5
20260902053245 81 126 0.0 0.0 0.00 0.00 0.00 65 1022.5
20260902053003 81 125 0.0 0.0 0.00 0.00 0.00 65 1022.4
20260902052952 81 125 0.0 0.0 0.00 0.00 0.00 65 1022.5
20260902052944 81 125 0.0 0.0 0.00 0.00 0.00 65 1022.5
20260902052938 81 125 0.0 0.0 0.00 0.00 0.00 65 1022.5
20260902052933 81 125 0.0 0.0 0.00 0.00 0.00 65 1022.5
20260902052921 81 126 0.0 0.0 0.00 0.00 0.00 65 1022.5
20260902052744 81 125 0.0 0.0 0.00 0.00 0.00 65 1022.5
20260902052724 81 125 0.0 0.0 0.00 0.00 0.00 65 1022.5
20260902052138 81 125 0.0 0.0 0.00 0.00 0.00 65 1022.5
20260902052036 81 125 0.0 0.0 0.00 0.00 0.00 65 1022.5
20260902051936 81 125 0.0 0.0 0.00 0.00 0.00 65 1022.5
20260902051833 81 124 0.0 0.0 0.00 0.00 0.00 66 1022.5
20260902051732 81 125 0.0 0.0 0.00 0.00 0.00 66 1022.5
20260902051631 81 124 0.0 0.0 0.00 0.00 0.00 65 1022.5
20260902051528 81 123 0.0 0.0 0.00 0.00 0.00 66 1022.5
20260902051430 81 124 0.0 0.0 0.00 0.00 0.00 66 1022.6
20260902051327 81 124 0.0 0.0 0.00 0.00 0.00 66 1022.6
20260902051218 81 135 0.0 0.0 0.00 0.00 0.00 66 1022.5
20260902051118 81 133 0.0 2.0 0.00 0.00 0.00 65 1022.5
20260902051016 81 136 0.0 2.0 0.00 0.00 0.00 65 1022.5
20260902050916 81 136 0.0 2.0 0.00 0.00 0.00 66 1022.4
20260902050817 81 136 0.0 2.0 0.00 0.00 0.00 66 1022.5
20260902050714 81 136 0.0 2.0 0.00 0.00 0.00 66 1022.5
20260902050616 81 136 1.0 2.0 0.00 0.00 0.00 66 1022.5
20260902050516 81 136 1.0 3.0 0.00 0.00 0.00 66 1022.6
20260902050414 81 134 1.0 3.0 0.00 0.00 0.00 66 1022.5
20260902050336 81 134 1.0 3.0 0.00 0.00 0.00 66 1022.5
20260902050328 81 134 1.0 3.0 0.00 0.00 0.00 66 1022.6
20260902050106 81 134 1.0 3.0 0.00 0.00 0.00 66 1022.6
20260902050007 81 134 1.0 3.0 0.00 0.00 0.00 66 1022.5
20260902045905 81 134 1.0 3.0 0.00 0.00 0.00 66 1022.5
20260902045806 81 125 1.0 3.0 0.00 0.00 0.00 66 1022.5
20260902045656 81 125 1.0 3.0 0.00 0.00 0.00 66 1022.5
20260902045555 81 124 0.0 3.0 0.00 0.00 0.00 66 1022.6
20260902045453 81 130 0.0 2.0 0.00 0.00 0.00 66 1022.5
20260902045353 81 128 0.0 2.0 0.00 0.00 0.00 66 1022.5
20260902045251 81 131 0.0 1.0 0.00 0.00 0.00 66 1022.5
20260902045151 81 131 0.0 1.0 0.00 0.00 0.00 66 1022.5
20260902045051 81 132 0.0 1.0 0.00 0.00 0.00 66 1022.4
20260902044950 81 132 0.0 1.0 0.00 0.00 0.00 66 1022.5
20260902044850 81 132 0.0 1.0 0.00 0.00 0.00 66 1022.4
20260902044747 81 132 0.0 1.0 0.00 0.00 0.00 66 1022.4
20260902044639 81 132 0.0 1.0 0.00 0.00 0.00 66 1022.4
20260902044541 81 132 0.0 1.0 0.00 0.00 0.00 66 1022.4
20260902044439 81 132 0.0 2.0 0.00 0.00 0.00 66 1022.4
20260902044339 81 132 0.0 2.0 0.00 0.00 0.00 66 1022.4
20260902044240 81 132 0.0 3.0 0.00 0.00 0.00 66 1022.5
20260902044136 81 132 1.0 3.0 0.00 0.00 0.00 66 1022.5
20260902044036 81 132 1.0 3.0 0.00 0.00 0.00 66 1022.4
20260902043935 81 132 1.0 3.0 0.00 0.00 0.00 66 1022.4
20260902043831 81 132 1.0 3.0 0.00 0.00 0.00 66 1022.4
20260902043729 81 132 1.0 3.0 0.00 0.00 0.00 66 1022.4
20260902043700 81 132 1.0 3.0 0.00 0.00 0.00 66 1022.5
20260902043650 81 132 1.0 3.0 0.00 0.00 0.00 66 1022.4
20260902043429 81 132 1.0 3.0 0.00 0.00 0.00 66 1022.5
20260902043330 81 132 1.0 3.0 0.00 0.00 0.00 66 1022.5
20260902043227 81 132 1.0 2.0 0.00 0.00 0.00 66 1022.4
20260902043126 81 136 0.0 2.0 0.00 0.00 0.00 67 1022.5
20260902043028 81 136 0.0 2.0 0.00 0.00 0.00 67 1022.5
20260902042955 81 136 0.0 2.0 0.00 0.00 0.00 67 1022.5
20260902042946 81 136 0.0 2.0 0.00 0.00 0.00 67 1022.4
20260902042806 81 156 0.0 2.0 0.00 0.00 0.00 67 1022.5
20260902042800 81 135 0.0 2.0 0.00 0.00 0.00 67 1022.4
20260902042755 81 205 0.0 2.0 0.00 0.00 0.00 67 1022.4
20260902042749 81 194 0.0 2.0 0.00 0.00 0.00 67 1022.4
20260902042735 81 137 0.0 2.0 0.00 0.00 0.00 67 1022.4
20260902042714 81 136 0.0 2.0 0.00 0.00 0.00 67 1022.4
20260902042532 81 205 0.0 2.0 0.00 0.00 0.00 67 1022.4
20260902042253 81 194 0.0 2.0 0.00 0.00 0.00 67 1022.4
20260902042022 81 156 0.0 2.0 0.00 0.00 0.00 67 1022.4
20260902041915 81 156 0.0 2.0 0.00 0.00 0.00 67 1022.5
20260902041815 81 157 0.0 2.0 0.00 0.00 0.00 67 1022.5
20260902041716 81 157 0.0 2.0 0.00 0.00 0.00 67 1022.5
20260902041615 81 155 0.0 2.0 0.00 0.00 0.00 67 1022.5
20260902041515 81 155 0.0 2.0 0.00 0.00 0.00 67 1022.6
20260902041412 81 155 0.0 2.0 0.00 0.00 0.00 67 1022.6
20260902041311 81 155 0.0 2.0 0.00 0.00 0.00 67 1022.5
20260902041213 81 155 0.0 2.0 0.00 0.00 0.00 67 1022.6
20260902041150 81 154 0.0 2.0 0.00 0.00 0.00 67 1022.6
20260902041138 81 155 0.0 2.0 0.00 0.00 0.00 67 1022.6
20260902040911 81 154 0.0 2.0 0.00 0.00 0.00 67 1022.5
20260902040808 81 154 0.0 2.0 0.00 0.00 0.00 67 1022.6
20260902040707 81 154 0.0 2.0 0.00 0.00 0.00 67 1022.6
20260902040605 81 140 0.0 2.0 0.00 0.00 0.00 67 1022.6
20260902040507 81 140 0.0 2.0 0.00 0.00 0.00 67 1022.5
20260902040404 81 140 0.0 3.0 0.00 0.00 0.00 67 1022.6
20260902040310 81 140 0.0 3.0 0.00 0.00 0.00 67 1022.5
20260902040203 81 140 0.0 4.0 0.00 0.00 0.00 67 1022.5
20260902040103 81 140 0.0 4.0 0.00 0.00 0.00 66 1022.4
20260902040001 81 140 0.0 4.0 0.00 0.00 0.00 67 1022.5
20260902035901 81 140 1.0 4.0 0.00 0.00 0.00 66 1022.5
20260902035801 81 104 1.0 4.0 0.00 0.00 0.00 66 1022.5
20260902035659 81 104 1.0 4.0 0.00 0.00 0.00 66 1022.5
20260902035559 81 104 1.0 4.0 0.00 0.00 0.00 66 1022.5
20260902035512 81 105 1.0 6.0 0.00 0.00 0.00 66 1022.5
20260902035409 81 168 1.0 6.0 0.00 0.00 0.00 66 1022.5
20260902035259 81 167 1.0 6.0 0.00 0.00 0.00 65 1022.6
20260902035155 81 186 1.0 6.0 0.00 0.00 0.00 65 1022.5
20260902035131 81 89 1.0 6.0 0.00 0.00 0.00 65 1022.5
20260902035120 81 89 1.0 6.0 0.00 0.00 0.00 65 1022.5
20260902034856 81 89 1.0 6.0 0.00 0.00 0.00 65 1022.5
20260902034753 81 103 1.0 6.0 0.00 0.00 0.00 65 1022.5
20260902034648 81 99 1.0 6.0 0.00 0.00 0.00 65 1022.5
20260902034547 81 112 2.0 6.0 0.00 0.00 0.00 65 1022.5
20260902034446 81 131 1.0 3.0 0.00 0.00 0.00 65 1022.5
20260902034346 81 134 1.0 3.0 0.00 0.00 0.00 65 1022.5
20260902034246 81 92 2.0 4.0 0.00 0.00 0.00 65 1022.5
20260902034142 81 90 2.0 4.0 0.00 0.00 0.00 64 1022.5
20260902034040 81 143 1.0 4.0 0.00 0.00 0.00 65 1022.6
20260902033939 81 63 1.0 4.0 0.00 0.00 0.00 64 1022.6
20260902033838 81 119 1.0 4.0 0.00 0.00 0.00 64 1022.6
20260902033744 81 119 1.0 4.0 0.00 0.00 0.00 64 1022.6
20260902033636 81 93 1.0 4.0 0.00 0.00 0.00 64 1022.6
20260902033534 81 88 1.0 4.0 0.00 0.00 0.00 64 1022.6
20260902033435 81 138 1.0 4.0 0.00 0.00 0.00 64 1022.6
20260902033331 81 92 1.0 4.0 0.00 0.00 0.00 64 1022.6
20260902033230 81 127 1.0 3.0 0.00 0.00 0.00 64 1022.6
20260902033128 81 119 1.0 3.0 0.00 0.00 0.00 64 1022.6
20260902033025 81 119 1.0 3.0 0.00 0.00 0.00 64 1022.6
20260902032926 81 119 1.0 3.0 0.00 0.00 0.00 63 1022.5
20260902032824 81 119 1.0 3.0 0.00 0.00 0.00 64 1022.6
20260902032726 81 119 1.0 3.0 0.00 0.00 0.00 63 1022.7
20260902032613 81 119 1.0 4.0 0.00 0.00 0.00 63 1022.6
20260902032527 81 119 1.0 4.0 0.00 0.00 0.00 63 1022.6
20260902032416 82 119 1.0 4.0 0.00 0.00 0.00 63 1022.6
20260902032314 82 119 1.0 6.0 0.00 0.00 0.00 63 1022.6
20260902032210 82 119 1.0 6.0 0.00 0.00 0.00 63 1022.5
20260902032153 82 119 2.0 6.0 0.00 0.00 0.00 63 1022.5
20260902032147 82 122 2.0 5.0 0.00 0.00 0.00 63 1022.6
20260902032142 82 119 2.0 6.0 0.00 0.00 0.00 63 1022.5
20260902032131 82 119 1.0 6.0 0.00 0.00 0.00 63 1022.5
20260902032112 82 119 2.0 6.0 0.00 0.00 0.00 63 1022.5
20260902031945 82 119 2.0 6.0 0.00 0.00 0.00 63 1022.6
20260902031806 82 119 2.0 6.0 0.00 0.00 0.00 63 1022.5
20260902031643 82 119 2.0 6.0 0.00 0.00 0.00 63 1022.5
20260902031302 82 122 1.0 5.0 0.00 0.00 0.00 63 1022.6
20260902031158 82 122 1.0 5.0 0.00 0.00 0.00 63 1022.6
20260902031054 82 122 1.0 5.0 0.00 0.00 0.00 64 1022.6
20260902030952 82 122 1.0 5.0 0.00 0.00 0.00 63 1022.6
20260902030850 82 120 1.0 3.0 0.00 0.00 0.00 63 1022.6
20260902030750 82 120 1.0 3.0 0.00 0.00 0.00 63 1022.6
20260902030649 82 120 1.0 3.0 0.00 0.00 0.00 63 1022.6
20260902030545 82 120 1.0 3.0 0.00 0.00 0.00 63 1022.7
20260902030441 82 120 2.0 3.0 0.00 0.00 0.00 63 1022.7
20260902030342 82 120 2.0 3.0 0.00 0.00 0.00 63 1022.6
20260902030317 82 120 2.0 3.0 0.00 0.00 0.00 63 1022.7
20260902030305 82 120 2.0 3.0 0.00 0.00 0.00 63 1022.7
20260902030039 82 120 2.0 3.0 0.00 0.00 0.00 63 1022.6
20260902025940 82 120 2.0 4.0 0.00 0.00 0.00 63 1022.6
20260902025839 82 120 2.0 4.0 0.00 0.00 0.00 63 1022.7
20260902025817 81 120 2.0 4.0 0.00 0.00 0.00 63 1022.7
20260902025804 82 120 2.0 4.0 0.00 0.00 0.00 63 1022.7
20260902025532 81 120 2.0 4.0 0.00 0.00 0.00 63 1022.6
20260902025430 81 120 2.0 4.0 0.00 0.00 0.00 63 1022.7
20260902025328 81 120 2.0 4.0 0.00 0.00 0.00 63 1022.6
20260902025226 81 120 2.0 4.0 0.00 0.00 0.00 63 1022.7
20260902025202 81 119 2.0 3.0 0.00 0.00 0.00 63 1022.7
20260902025152 81 120 2.0 4.0 0.00 0.00 0.00 63 1022.7
20260902024928 81 119 2.0 3.0 0.00 0.00 0.00 63 1022.7
20260902024828 81 119 2.0 3.0 0.00 0.00 0.00 63 1022.7
20260902024727 81 124 2.0 3.0 0.00 0.00 0.00 63 1022.7
20260902024628 81 124 2.0 3.0 0.00 0.00 0.00 63 1022.7
20260902024528 81 124 2.0 3.0 0.00 0.00 0.00 63 1022.7
20260902024426 81 124 2.0 3.0 0.00 0.00 0.00 62 1022.6
20260902024356 81 124 2.0 3.0 0.00 0.00 0.00 62 1022.6
20260902024346 81 124 2.0 3.0 0.00 0.00 0.00 63 1022.6
20260902024122 81 124 2.0 3.0 0.00 0.00 0.00 62 1022.7
20260902024024 81 124 2.0 3.0 0.00 0.00 0.00 62 1022.6
20260902023937 82 124 2.0 3.0 0.00 0.00 0.00 62 1022.7
20260902023924 81 124 2.0 3.0 0.00 0.00 0.00 62 1022.7
20260902023917 82 124 2.0 3.0 0.00 0.00 0.00 62 1022.7
20260902023912 82 124 2.0 3.0 0.00 0.00 0.00 62 1022.6
20260902023856 81 124 2.0 3.0 0.00 0.00 0.00 62 1022.7
20260902023839 82 124 2.0 3.0 0.00 0.00 0.00 62 1022.7
20260902023318 82 124 2.0 3.0 0.00 0.00 0.00 62 1022.6
20260902023218 82 124 2.0 3.0 0.00 0.00 0.00 62 1022.6
20260902023121 82 124 1.0 3.0 0.00 0.00 0.00 62 1022.6
20260902023018 82 124 2.0 3.0 0.00 0.00 0.00 62 1022.6
20260902022920 82 124 2.0 3.0 0.00 0.00 0.00 62 1022.6
20260902022817 82 124 1.0 3.0 0.00 0.00 0.00 62 1022.6
20260902022718 82 124 2.0 3.0 0.00 0.00 0.00 62 1022.6
20260902022615 82 124 2.0 3.0 0.00 0.00 0.00 62 1022.7
20260902022518 82 124 2.0 3.0 0.00 0.00 0.00 62 1022.7
20260902022508 82 124 2.0 3.0 0.00 0.00 0.00 62 1022.7
20260902022500 82 124 2.0 3.0 0.00 0.00 0.00 62 1022.7
20260902022447 82 124 2.0 3.0 0.00 0.00 0.00 62 1022.6
20260902022418 82 124 2.0 3.0 0.00 0.00 0.00 62 1022.7
20260902022117 82 124 2.0 3.0 0.00 0.00 0.00 62 1022.6
20260902022014 82 123 2.0 3.0 0.00 0.00 0.00 61 1022.7
20260902021915 82 123 2.0 3.0 0.00 0.00 0.00 61 1022.7
20260902021813 82 123 2.0 3.0 0.00 0.00 0.00 61 1022.7
20260902021713 82 123 2.0 3.0 0.00 0.00 0.00 61 1022.7
20260902021617 82 127 2.0 3.0 0.00 0.00 0.00 61 1022.6
20260902021532 82 127 2.0 3.0 0.00 0.00 0.00 61 1022.7
20260902021517 82 127 2.0 3.0 0.00 0.00 0.00 61 1022.7
20260902021452 82 127 2.0 3.0 0.00 0.00 0.00 61 1022.7
20260902021205 82 127 1.0 3.0 0.00 0.00 0.00 61 1022.7
20260902021146 82 117 1.0 3.0 0.00 0.00 0.00 61 1022.7
20260902021128 82 121 1.0 3.0 0.00 0.00 0.00 61 1022.7
20260902020901 82 111 1.0 3.0 0.00 0.00 0.00 60 1022.7
20260902020802 82 113 1.0 3.0 0.00 0.00 0.00 60 1022.7
20260902020702 82 119 1.0 3.0 0.00 0.00 0.00 60 1022.7
20260902020606 82 118 1.0 3.0 0.00 0.00 0.00 60 1022.6
20260902020457 82 117 1.0 3.0 0.00 0.00 0.00 60 1022.6
20260902020355 82 118 1.0 4.0 0.00 0.00 0.00 60 1022.7
20260902020254 82 157 1.0 4.0 0.00 0.00 0.00 60 1022.7
20260902020157 82 120 1.0 4.0 0.00 0.00 0.00 60 1022.7
20260902020053 82 119 1.0 4.0 0.00 0.00 0.00 60 1022.7
20260902015957 82 116 1.0 4.0 0.00 0.00 0.00 59 1022.7
20260902015936 82 116 1.0 4.0 0.00 0.00 0.00 60 1022.7
20260902015922 82 116 1.0 4.0 0.00 0.00 0.00 60 1022.7
20260902015732 82 113 2.0 6.0 0.00 0.00 0.00 60 1022.6
20260902015718 82 116 1.0 4.0 0.00 0.00 0.00 60 1022.6
20260902015648 82 115 1.0 4.0 0.00 0.00 0.00 60 1022.7
20260902015525 82 115 1.0 4.0 0.00 0.00 0.00 60 1022.7
20260902015249 82 103 2.0 6.0 0.00 0.00 0.00 60 1022.7
20260902015149 82 103 2.0 6.0 0.00 0.00 0.00 60 1022.6
20260902015047 82 103 2.0 6.0 0.00 0.00 0.00 60 1022.6
20260902014946 82 114 2.0 6.0 0.00 0.00 0.00 59 1022.6
20260902014846 82 114 2.0 6.0 0.00 0.00 0.00 59 1022.7
20260902014742 82 126 2.0 6.0 0.00 0.00 0.00 59 1022.7
20260902014644 82 126 2.0 6.0 0.00 0.00 0.00 60 1022.7
20260902014542 82 126 2.0 6.0 0.00 0.00 0.00 60 1022.7
20260902014501 82 120 2.0 4.0 0.00 0.00 0.00 60 1022.6
20260902014456 82 119 2.0 4.0 0.00 0.00 0.00 59 1022.6
20260902014443 82 121 2.0 6.0 0.00 0.00 0.00 60 1022.7
20260902014416 82 128 2.0 4.0 0.00 0.00 0.00 60 1022.6
20260902014037 82 124 2.0 4.0 0.00 0.00 0.00 59 1022.6
20260902013934 82 123 2.0 4.0 0.00 0.00 0.00 59 1022.6
20260902013827 82 123 2.0 6.0 0.00 0.00 0.00 59 1022.6
20260902013727 82 119 2.0 6.0 0.00 0.00 0.00 59 1022.6
20260902013627 82 119 2.0 6.0 0.00 0.00 0.00 59 1022.6
20260902013526 82 124 2.0 6.0 0.00 0.00 0.00 59 1022.6
20260902013449 82 123 2.0 6.0 0.00 0.00 0.00 59 1022.6
20260902013441 82 124 2.0 6.0 0.00 0.00 0.00 60 1022.6
20260902013218 82 128 2.0 6.0 0.00 0.00 0.00 59 1022.5
20260902013119 82 111 2.0 6.0 0.00 0.00 0.00 60 1022.5
20260902013018 82 113 2.0 6.0 0.00 0.00 0.00 60 1022.6
20260902012919 82 105 2.0 6.0 0.00 0.00 0.00 60 1022.5
20260902012819 82 121 2.0 4.0 0.00 0.00 0.00 60 1022.5
20260902012719 82 101 2.0 4.0 0.00 0.00 0.00 60 1022.5
20260902012619 82 106 2.0 4.0 0.00 0.00 0.00 60 1022.5
20260902012520 82 111 2.0 4.0 0.00 0.00 0.00 61 1022.5
20260902012418 82 98 2.0 4.0 0.00 0.00 0.00 61 1022.5
20260902012352 82 125 2.0 4.0 0.00 0.00 0.00 62 1022.4
20260902012340 82 98 2.0 4.0 0.00 0.00 0.00 62 1022.4
20260902012117 82 129 2.0 4.0 0.00 0.00 0.00 62 1022.4
20260902012045 82 108 2.0 4.0 0.00 0.00 0.00 63 1022.5
20260902012036 82 129 2.0 4.0 0.00 0.00 0.00 63 1022.4
20260902011816 82 93 2.0 4.0 0.00 0.00 0.00 63 1022.4
20260902011714 82 106 2.0 4.0 0.00 0.00 0.00 63 1022.5
20260902011614 82 99 2.0 4.0 0.00 0.00 0.00 63 1022.4
20260902011548 82 98 2.0 4.0 0.00 0.00 0.00 63 1022.4
20260902011537 82 99 2.0 4.0 0.00 0.00 0.00 63 1022.4
20260902011345 82 105 2.0 4.0 0.00 0.00 0.00 64 1022.4
20260902011335 82 105 2.0 4.0 0.00 0.00 0.00 63 1022.4
20260902011113 82 101 2.0 4.0 0.00 0.00 0.00 63 1022.3
20260902011013 83 101 2.0 4.0 0.00 0.00 0.00 63 1022.4
20260902010949 83 105 2.0 4.0 0.00 0.00 0.00 63 1022.4
20260902010937 83 105 2.0 4.0 0.00 0.00 0.00 63 1022.4
20260902010712 83 101 2.0 4.0 0.00 0.00 0.00 63 1022.4
20260902010613 83 101 2.0 4.0 0.00 0.00 0.00 63 1022.4
20260902010521 83 100 2.0 4.0 0.00 0.00 0.00 63 1022.3
20260902010407 83 96 2.0 4.0 0.00 0.00 0.00 63 1022.3
20260902010306 83 83 2.0 6.0 0.00 0.00 0.00 63 1022.4
20260902010206 83 97 2.0 6.0 0.00 0.00 0.00 63 1022.3
20260902010143 83 98 2.0 6.0 0.00 0.00 0.00 63 1022.3
20260902010131 83 88 2.0 6.0 0.00 0.00 0.00 63 1022.4
20260902005903 83 98 2.0 6.0 0.00 0.00 0.00 63 1022.3
20260902005833 83 94 2.0 6.0 0.00 0.00 0.00 64 1022.4
20260902005824 83 98 2.0 6.0 0.00 0.00 0.00 64 1022.3
20260902005559 83 94 2.0 6.0 0.00 0.00 0.00 64 1022.3
20260902005500 83 89 2.0 6.0 0.00 0.00 0.00 64 1022.3
20260902005346 83 89 2.0 6.0 0.00 0.00 0.00 64 1022.3
20260902005332 83 94 2.0 4.0 0.00 0.00 0.00 64 1022.3
20260902005320 83 94 2.0 4.0 0.00 0.00 0.00 64 1022.3
20260902005045 83 94 2.0 4.0 0.00 0.00 0.00 64 1022.3
20260902004949 83 126 2.0 4.0 0.00 0.00 0.00 64 1022.3
20260902004842 83 126 2.0 4.0 0.00 0.00 0.00 64 1022.2
20260902004744 83 91 2.0 4.0 0.00 0.00 0.00 64 1022.2
20260902004644 83 91 2.0 4.0 0.00 0.00 0.00 64 1022.3
20260902004541 83 86 2.0 4.0 0.00 0.00 0.00 64 1022.2
20260902004442 83 86 2.0 6.0 0.00 0.00 0.00 64 1022.3
20260902004342 83 102 2.0 6.0 0.00 0.00 0.00 64 1022.2
20260902004237 83 102 2.0 6.0 0.00 0.00 0.00 64 1022.2
20260902004139 83 102 2.0 6.0 0.00 0.00 0.00 64 1022.2
20260902004036 83 102 2.0 6.0 0.00 0.00 0.00 64 1022.2
20260902003934 83 102 2.0 6.0 0.00 0.00 0.00 64 1022.2
20260902003906 83 101 2.0 6.0 0.00 0.00 0.00 64 1022.2
20260902003853 83 102 2.0 6.0 0.00 0.00 0.00 64 1022.2
20260902003625 83 119 2.0 6.0 0.00 0.00 0.00 64 1022.2
20260902003525 83 97 2.0 4.0 0.00 0.00 0.00 64 1022.2
20260902003425 83 96 2.0 4.0 0.00 0.00 0.00 64 1022.1
20260902003326 83 96 2.0 4.0 0.00 0.00 0.00 64 1022.2
20260902003227 83 95 2.0 4.0 0.00 0.00 0.00 64 1022.2
20260902003126 83 95 2.0 4.0 0.00 0.00 0.00 64 1022.2
20260902003054 83 82 2.0 4.0 0.00 0.00 0.00 64 1022.2
20260902003044 83 82 2.0 4.0 0.00 0.00 0.00 64 1022.2
20260902002825 83 82 2.0 4.0 0.00 0.00 0.00 64 1022.2
20260902002812 83 80 2.0 4.0 0.00 0.00 0.00 64 1022.3
20260902002806 83 80 2.0 4.0 0.00 0.00 0.00 64 1022.3
20260902002759 83 79 2.0 4.0 0.00 0.00 0.00 64 1022.3
20260902002748 83 80 2.0 4.0 0.00 0.00 0.00 64 1022.2
20260902002600 83 80 2.0 4.0 0.00 0.00 0.00 64 1022.2
20260902002218 83 79 2.0 4.0 0.00 0.00 0.00 64 1022.3
20260902002120 83 79 2.0 5.0 0.00 0.00 0.00 64 1022.2
20260902002021 83 80 2.0 5.0 0.00 0.00 0.00 64 1022.4
20260902001916 83 86 2.0 5.0 0.00 0.00 0.00 64 1022.2
20260902001815 83 86 3.0 5.0 0.00 0.00 0.00 64 1022.3
20260902001715 83 86 3.0 5.0 0.00 0.00 0.00 64 1022.2
20260902001615 83 86 3.0 5.0 0.00 0.00 0.00 64 1022.2
20260902001545 83 86 3.0 5.0 0.00 0.00 0.00 64 1022.2
20260902001417 83 86 2.0 5.0 0.00 0.00 0.00 64 1022.2
20260902001314 83 71 2.0 5.0 0.00 0.00 0.00 64 1022.2
20260902001216 83 71 2.0 5.0 0.00 0.00 0.00 64 1022.2
20260902001114 83 72 2.0 4.0 0.00 0.00 0.00 64 1022.2
20260902001016 83 97 2.0 4.0 0.00 0.00 0.00 64 1022.2
20260902000915 83 98 2.0 4.0 0.00 0.00 0.00 64 1022.3
20260902000815 83 98 2.0 4.0 0.00 0.00 0.00 64 1022.2
20260902000716 83 105 2.0 3.0 0.00 0.00 0.00 64 1022.2
20260902000616 83 105 2.0 3.0 0.00 0.00 0.00 64 1022.3
20260902000516 83 103 2.0 3.0 0.00 0.00 0.00 64 1022.2
20260902000414 83 103 2.0 3.0 0.00 0.00 0.00 64 1022.2
20260902000316 83 103 2.0 3.0 0.00 0.00 0.00 64 1022.3
20260902000234 84 101 2.0 4.0 0.00 0.00 0.00 64 1022.2
20260902000228 83 102 2.0 3.0 0.00 0.00 0.00 64 1022.3
20260902000218 83 103 2.0 3.0 0.00 0.00 0.00 64 1022.3
20260902000153 83 102 2.0 3.0 0.00 0.00 0.00 64 1022.2
20260902000008 84 102 2.0 3.0 0.00 0.00 0.00 63 1022.3
20260901235843 84 101 2.0 4.0 0.00 0.00 0.00 64 1022.2
20260901235614 84 101 2.0 4.0 0.00 0.00 0.00 63 1022.3
20260901235514 84 101 2.0 4.0 0.00 0.00 0.00 63 1022.3
20260901235415 84 100 2.0 4.0 0.00 0.00 0.00 63 1022.2
20260901235315 84 100 2.0 4.0 0.00 0.00 0.00 63 1022.2
20260901235217 84 100 2.0 4.0 0.00 0.00 0.00 63 1022.3
20260901235115 84 98 2.0 4.0 0.00 0.00 0.00 63 1022.3
20260901235015 84 98 2.0 4.0 0.00 0.00 0.00 63 1022.3
20260901234914 84 99 2.0 4.0 0.00 0.00 0.00 63 1022.4
20260901234816 84 86 2.0 4.0 0.00 0.00 0.00 63 1022.3
20260901234747 84 86 2.0 4.0 0.00 0.00 0.00 63 1022.3
20260901234735 84 86 2.0 4.0 0.00 0.00 0.00 63 1022.4
20260901234520 84 59 2.0 4.0 0.00 0.00 0.00 63 1022.3
20260901234455 84 58 2.0 4.0 0.00 0.00 0.00 63 1022.3
20260901234441 84 59 2.0 4.0 0.00 0.00 0.00 63 1022.3
20260901234221 84 57 2.0 4.0 0.00 0.00 0.00 63 1022.2
20260901234114 84 57 2.0 4.0 0.00 0.00 0.00 63 1022.3
20260901234017 84 57 2.0 4.0 0.00 0.00 0.00 63 1022.3
20260901233915 84 57 2.0 4.0 0.00 0.00 0.00 63 1022.3
20260901233815 84 57 2.0 4.0 0.00 0.00 0.00 63 1022.2
20260901233739 84 92 2.0 4.0 0.00 0.00 0.00 62 1022.3
20260901233726 84 57 2.0 4.0 0.00 0.00 0.00 63 1022.3
20260901233704 84 57 2.0 4.0 0.00 0.00 0.00 63 1022.3
20260901233538 84 52 2.0 4.0 0.00 0.00 0.00 62 1022.2
20260901233316 85 92 2.0 4.0 0.00 0.00 0.00 63 1022.3
20260901233211 84 92 2.0 4.0 0.00 0.00 0.00 63 1022.3
20260901233110 85 92 2.0 4.0 0.00 0.00 0.00 62 1022.3
20260901233040 85 92 2.0 4.0 0.00 0.00 0.00 62 1022.3
20260901233029 85 92 2.0 4.0 0.00 0.00 0.00 62 1022.2
20260901232845 85 94 2.0 5.0 0.00 0.00 0.00 62 1022.4
20260901232835 85 93 2.0 4.0 0.00 0.00 0.00 62 1022.3
20260901232612 85 69 2.0 5.0 0.00 0.00 0.00 62 1022.4
20260901232511 85 69 2.0 5.0 0.00 0.00 0.00 62 1022.4
20260901232411 85 69 2.0 5.0 0.00 0.00 0.00 62 1022.5
20260901232312 85 61 2.0 5.0 0.00 0.00 0.00 61 1022.5
20260901232241 85 61 2.0 5.0 0.00 0.00 0.00 61 1022.5
20260901232231 85 61 2.0 5.0 0.00 0.00 0.00 61 1022.4
20260901231957 85 60 2.0 5.0 0.00 0.00 0.00 62 1022.5
20260901231925 85 58 2.0 5.0 0.00 0.00 0.00 62 1022.5
20260901231917 85 60 2.0 5.0 0.00 0.00 0.00 61 1022.5
20260901231654 85 53 2.0 4.0 0.00 0.00 0.00 61 1022.5
20260901231555 85 61 1.0 4.0 0.00 0.00 0.00 61 1022.5
20260901231453 85 61 1.0 4.0 0.00 0.00 0.00 61 1022.5
20260901231351 85 62 1.0 4.0 0.00 0.00 0.00 61 1022.5
20260901231250 85 61 1.0 5.0 0.00 0.00 0.00 61 1022.6
20260901231150 85 61 2.0 5.0 0.00 0.00 0.00 61 1022.6
20260901231050 85 61 2.0 5.0 0.00 0.00 0.00 61 1022.6
20260901230951 85 76 1.0 5.0 0.00 0.00 0.00 61 1022.5
20260901230847 86 74 1.0 5.0 0.00 0.00 0.00 60 1022.5
20260901230745 86 75 1.0 5.0 0.00 0.00 0.00 60 1022.5
20260901230647 86 75 1.0 5.0 0.00 0.00 0.00 60 1022.5
20260901230547 86 75 1.0 5.0 0.00 0.00 0.00 60 1022.5
20260901230437 86 76 1.0 5.0 0.00 0.00 0.00 60 1022.5
20260901230337 86 65 1.0 5.0 0.00 0.00 0.00 60 1022.5
20260901230237 86 90 1.0 5.0 0.00 0.00 0.00 60 1022.5
20260901230137 86 90 1.0 5.0 0.00 0.00 0.00 59 1022.4
20260901230037 86 90 1.0 5.0 0.00 0.00 0.00 60 1022.4
20260901225939 86 90 1.0 5.0 0.00 0.00 0.00 59 1022.4
20260901225857 86 72 1.0 4.0 0.00 0.00 0.00 58 1022.4
20260901225844 86 90 1.0 5.0 0.00 0.00 0.00 59 1022.5
20260901225819 86 90 1.0 5.0 0.00 0.00 0.00 59 1022.5
20260901225654 86 72 1.0 4.0 0.00 0.00 0.00 59 1022.5
20260901225434 86 72 1.0 4.0 0.00 0.00 0.00 58 1022.4
20260901225402 86 72 1.0 4.0 0.00 0.00 0.00 59 1022.5
20260901225351 86 72 1.0 4.0 0.00 0.00 0.00 58 1022.4
20260901225131 86 72 1.0 4.0 0.00 0.00 0.00 58 1022.5
20260901225108 86 71 1.0 4.0 0.00 0.00 0.00 58 1022.5
20260901225053 86 72 1.0 4.0 0.00 0.00 0.00 58 1022.5
20260901224829 86 71 1.0 4.0 0.00 0.00 0.00 57 1022.4
20260901224723 86 74 0.0 3.0 0.00 0.00 0.00 57 1022.5
20260901224624 86 74 0.0 3.0 0.00 0.00 0.00 57 1022.5
20260901224522 86 74 0.0 3.0 0.00 0.00 0.00 58 1022.5
20260901224425 86 74 0.0 2.0 0.00 0.00 0.00 58 1022.4
20260901224322 86 74 1.0 2.0 0.00 0.00 0.00 58 1022.5
20260901224223 86 75 1.0 3.0 0.00 0.00 0.00 59 1022.5
20260901224116 87 75 1.0 4.0 0.00 0.00 0.00 59 1022.5
20260901224017 87 75 1.0 4.0 0.00 0.00 0.00 58 1022.5
20260901223916 87 75 1.0 4.0 0.00 0.00 0.00 58 1022.4
20260901223838 87 75 2.0 4.0 0.00 0.00 0.00 59 1022.5
20260901223833 87 75 2.0 4.0 0.00 0.00 0.00 58 1022.5
20260901223821 87 75 2.0 4.0 0.00 0.00 0.00 59 1022.5
20260901223757 87 75 2.0 4.0 0.00 0.00 0.00 58 1022.5
20260901223449 87 75 1.0 4.0 0.00 0.00 0.00 57 1022.5
20260901223438 87 75 2.0 4.0 0.00 0.00 0.00 58 1022.5
20260901223243 87 75 1.0 3.0 0.00 0.00 0.00 57 1022.5
20260901223232 87 75 1.0 4.0 0.00 0.00 0.00 57 1022.6
20260901223011 87 74 1.0 3.0 0.00 0.00 0.00 58 1022.5
20260901222910 87 75 1.0 2.0 0.00 0.00 0.00 59 1022.5
20260901222829 87 75 2.0 4.0 0.00 0.00 0.00 57 1022.5
20260901222823 87 75 2.0 4.0 0.00 0.00 0.00 58 1022.5
20260901222812 87 75 1.0 4.0 0.00 0.00 0.00 58 1022.5
20260901222752 87 75 2.0 4.0 0.00 0.00 0.00 58 1022.5
20260901222408 87 75 2.0 4.0 0.00 0.00 0.00 58 1022.4
20260901222345 87 75 2.0 4.0 0.00 0.00 0.00 58 1022.4
20260901222332 87 75 2.0 4.0 0.00 0.00 0.00 58 1022.5
20260901222105 87 74 2.0 4.0 0.00 0.00 0.00 58 1022.5
20260901222004 87 74 2.0 4.0 0.00 0.00 0.00 58 1022.4
20260901221904 87 74 2.0 4.0 0.00 0.00 0.00 57 1022.4
20260901221805 87 69 2.0 4.0 0.00 0.00 0.00 57 1022.5
20260901221706 87 68 2.0 4.0 0.00 0.00 0.00 58 1022.4
20260901221611 87 68 2.0 4.0 0.00 0.00 0.00 58 1022.4
20260901221505 87 68 2.0 4.0 0.00 0.00 0.00 58 1022.4
20260901221404 87 68 2.0 4.0 0.00 0.00 0.00 57 1022.4
20260901221304 87 68 2.0 4.0 0.00 0.00 0.00 57 1022.4
20260901221249 88 65 2.0 4.0 0.00 0.00 0.00 57 1022.4
20260901221234 88 68 2.0 4.0 0.00 0.00 0.00 56 1022.4